GEFSNE_prec_meanprecacc_012.txt.gz
Total_Precipitation_Accumulation
0.42 0.46 0.58 0.64 0.55 0.35 0.27 0.23 0.18 0.18 0.20 0.19 0.08 0.01 0.00 0.00 0.00 0.00 0.00 0.00 0.00 0.00 0.00 0.00 0.00 0.00 0.00 0.00 0.00 0.00 0.00 0.00 0.00 0.00 0.00 0.00 0.00 0.01
0.36 0.42 0.45 0.49 0.60 0.52 0.38 0.30 0.23 0.17 0.18 0.16 0.15 0.03 0.00 0.00 0.00 0.00 0.00 0.00 0.00 0.00 0.00 0.00 0.00 0.00 0.00 0.00 0.00 0.00 0.00 0.00 0.00 0.00 0.00 0.00 0.00 0.01
0.21 0.27 0.35 0.47 0.62 0.60 0.52 0.43 0.35 0.29 0.26 0.18 0.14 0.04 0.01 0.00 0.00 0.00 0.00 0.00 0.00 0.00 0.00 0.00 0.00 0.00 0.00 0.00 0.00 0.00 0.00 0.00 0.00 0.00 0.00 0.00 0.00 0.01
0.15 0.17 0.25 0.44 0.62 0.70 0.72 0.67 0.55 0.47 0.47 0.37 0.19 0.07 0.03 0.02 0.01 0.00 0.00 0.00 0.00 0.00 0.00 0.00 0.00 0.00 0.00 0.00 0.00 0.00 0.00 0.00 0.00 0.00 0.01 0.01 0.00 0.01
0.21 0.21 0.21 0.31 0.48 0.62 0.68 0.67 0.60 0.54 0.56 0.48 0.30 0.17 0.12 0.06 0.02 0.00 0.00 0.00 0.00 0.00 0.00 0.00 0.00 0.00 0.00 0.00 0.00 0.00 0.00 0.00 0.00 0.00 0.00 0.00 0.00 0.00
0.14 0.19 0.22 0.22 0.30 0.40 0.49 0.53 0.59 0.60 0.60 0.57 0.45 0.24 0.24 0.14 0.04 0.01 0.00 0.00 0.00 0.00 0.00 0.00 0.00 0.00 0.00 0.00 0.00 0.00 0.00 0.00 0.00 0.00 0.00 0.00 0.00 0.00
0.05 0.07 0.11 0.14 0.19 0.27 0.33 0.45 0.60 0.66 0.64 0.60 0.52 0.28 0.17 0.12 0.03 0.01 0.00 0.00 0.00 0.00 0.00 0.00 0.00 0.00 0.00 0.00 0.00 0.00 0.00 0.00 0.00 0.00 0.00 0.00 0.00 0.00
0.04 0.04 0.05 0.06 0.10 0.14 0.18 0.24 0.39 0.48 0.51 0.48 0.46 0.30 0.17 0.11 0.06 0.03 0.01 0.00 0.00 0.00 0.00 0.00 0.00 0.00 0.00 0.00 0.00 0.00 0.00 0.00 0.00 0.00 0.00 0.00 0.00 0.00
0.02 0.02 0.02 0.02 0.03 0.05 0.09 0.14 0.18 0.21 0.27 0.35 0.34 0.32 0.38 0.27 0.14 0.06 0.02 0.01 0.00 0.00 0.00 0.00 0.00 0.00 0.00 0.00 0.00 0.00 0.00 0.00 0.00 0.00 0.00 0.00 0.00 0.00
0.01 0.01 0.01 0.02 0.02 0.03 0.05 0.07 0.11 0.17 0.20 0.19 0.22 0.33 0.42 0.46 0.33 0.17 0.10 0.05 0.02 0.00 0.00 0.00 0.00 0.00 0.00 0.00 0.00 0.00 0.00 0.00 0.00 0.00 0.00 0.00 0.00 0.00
0.03 0.03 0.02 0.02 0.03 0.05 0.06 0.06 0.10 0.18 0.20 0.26 0.32 0.33 0.33 0.36 0.35 0.24 0.14 0.07 0.03 0.00 0.00 0.00 0.00 0.00 0.00 0.00 0.00 0.00 0.00 0.00 0.00 0.00 0.00 0.00 0.00 0.00
0.08 0.05 0.05 0.05 0.07 0.08 0.08 0.08 0.07 0.10 0.16 0.21 0.21 0.19 0.16 0.15 0.18 0.15 0.14 0.11 0.06 0.02 0.01 0.00 0.00 0.00 0.00 0.00 0.00 0.00 0.00 0.00 0.00 0.00 0.00 0.00 0.00 0.00
0.11 0.10 0.09 0.11 0.11 0.09 0.07 0.06 0.07 0.07 0.08 0.09 0.09 0.09 0.08 0.08 0.08 0.11 0.12 0.10 0.09 0.09 0.04 0.01 0.00 0.00 0.00 0.00 0.00 0.00 0.00 0.00 0.00 0.00 0.00 0.00 0.00 0.00
0.20 0.20 0.18 0.25 0.19 0.09 0.04 0.03 0.03 0.03 0.03 0.03 0.04 0.06 0.08 0.10 0.09 0.13 0.15 0.11 0.10 0.11 0.09 0.06 0.03 0.01 0.01 0.00 0.00 0.00 0.00 0.00 0.00 0.00 0.00 0.00 0.00 0.00
0.23 0.28 0.30 0.26 0.14 0.08 0.06 0.04 0.02 0.02 0.02 0.03 0.04 0.05 0.06 0.09 0.14 0.19 0.24 0.27 0.25 0.22 0.19 0.16 0.12 0.08 0.05 0.02 0.01 0.00 0.00 0.00 0.00 0.00 0.00 0.00 0.00 0.00
0.18 0.22 0.21 0.12 0.08 0.08 0.06 0.04 0.03 0.04 0.03 0.02 0.02 0.02 0.03 0.04 0.07 0.12 0.20 0.29 0.34 0.35 0.37 0.36 0.30 0.24 0.19 0.14 0.08 0.04 0.02 0.01 0.01 0.01 0.00 0.00 0.00 0.00
0.32 0.20 0.16 0.14 0.13 0.09 0.05 0.04 0.05 0.05 0.04 0.03 0.02 0.02 0.03 0.04 0.04 0.05 0.07 0.12 0.18 0.23 0.29 0.37 0.42 0.40 0.34 0.29 0.24 0.17 0.12 0.08 0.06 0.05 0.03 0.02 0.01 0.01
0.53 0.49 0.47 0.44 0.40 0.27 0.11 0.04 0.03 0.03 0.02 0.02 0.02 0.02 0.03 0.04 0.05 0.05 0.05 0.07 0.09 0.12 0.17 0.23 0.32 0.41 0.44 0.39 0.31 0.27 0.23 0.18 0.15 0.13 0.11 0.09 0.07 0.06
0.60 0.66 0.62 0.49 0.38 0.29 0.16 0.07 0.05 0.04 0.04 0.03 0.03 0.04 0.04 0.04 0.03 0.03 0.03 0.04 0.05 0.07 0.12 0.17 0.22 0.29 0.35 0.31 0.27 0.29 0.28 0.25 0.25 0.23 0.20 0.17 0.14 0.14
0.49 0.48 0.39 0.28 0.19 0.13 0.08 0.05 0.03 0.04 0.04 0.04 0.04 0.03 0.02 0.01 0.01 0.02 0.02 0.02 0.02 0.03 0.04 0.07 0.09 0.12 0.14 0.17 0.17 0.17 0.22 0.25 0.25 0.22 0.19 0.19 0.18 0.18
0.19 0.15 0.11 0.06 0.03 0.02 0.02 0.01 0.01 0.00 0.01 0.00 0.00 0.00 0.01 0.01 0.01 0.01 0.01 0.03 0.03 0.02 0.02 0.02 0.03 0.07 0.09 0.14 0.16 0.12 0.11 0.20 0.23 0.20 0.18 0.20 0.20 0.20
0.07 0.05 0.03 0.01 0.01 0.01 0.01 0.01 0.01 0.01 0.01 0.01 0.01 0.01 0.01 0.02 0.02 0.02 0.01 0.02 0.02 0.02 0.02 0.01 0.01 0.03 0.06 0.09 0.11 0.12 0.13 0.18 0.28 0.36 0.30 0.25 0.19 0.15
0.05 0.05 0.03 0.01 0.01 0.01 0.01 0.02 0.02 0.03 0.03 0.03 0.02 0.02 0.02 0.02 0.02 0.02 0.02 0.02 0.03 0.02 0.02 0.02 0.02 0.04 0.06 0.07 0.11 0.16 0.20 0.21 0.23 0.30 0.36 0.40 0.29 0.15

GEFSNE_prec_meanprecacc_018.txt.gz
Total_Precipitation_Accumulation
0.61 0.71 0.83 0.87 0.74 0.51 0.41 0.35 0.29 0.25 0.23 0.20 0.08 0.01 0.00 0.00 0.00 0.00 0.00 0.00 0.00 0.00 0.00 0.00 0.00 0.00 0.00 0.00 0.00 0.00 0.00 0.00 0.00 0.00 0.00 0.00 0.01 0.01
0.46 0.56 0.63 0.68 0.79 0.71 0.52 0.42 0.34 0.26 0.24 0.19 0.18 0.06 0.03 0.01 0.00 0.00 0.00 0.00 0.00 0.00 0.00 0.00 0.00 0.00 0.00 0.00 0.00 0.00 0.00 0.00 0.00 0.00 0.00 0.00 0.00 0.01
0.24 0.32 0.45 0.63 0.80 0.79 0.68 0.56 0.46 0.38 0.33 0.23 0.18 0.09 0.05 0.04 0.02 0.01 0.00 0.00 0.00 0.00 0.00 0.00 0.00 0.00 0.00 0.00 0.00 0.00 0.00 0.00 0.00 0.00 0.00 0.00 0.00 0.01
0.15 0.18 0.29 0.51 0.74 0.85 0.88 0.81 0.68 0.58 0.57 0.46 0.25 0.12 0.08 0.06 0.04 0.02 0.01 0.00 0.00 0.00 0.00 0.00 0.00 0.00 0.00 0.00 0.00 0.00 0.00 0.00 0.00 0.01 0.01 0.01 0.01 0.01
0.21 0.21 0.21 0.32 0.51 0.68 0.78 0.80 0.74 0.69 0.68 0.60 0.40 0.25 0.18 0.11 0.05 0.02 0.01 0.00 0.00 0.00 0.00 0.00 0.00 0.00 0.00 0.00 0.00 0.00 0.00 0.00 0.00 0.00 0.00 0.01 0.00 0.00
0.14 0.19 0.22 0.23 0.31 0.42 0.55 0.63 0.72 0.77 0.77 0.73 0.57 0.34 0.31 0.19 0.08 0.04 0.02 0.01 0.00 0.00 0.00 0.00 0.00 0.00 0.00 0.00 0.00 0.00 0.00 0.00 0.00 0.00 0.00 0.00 0.00 0.00
0.05 0.07 0.11 0.15 0.19 0.27 0.35 0.49 0.70 0.82 0.83 0.81 0.71 0.44 0.29 0.19 0.08 0.06 0.03 0.02 0.01 0.00 0.00 0.00 0.00 0.00 0.00 0.00 0.00 0.00 0.00 0.00 0.00 0.00 0.00 0.00 0.00 0.00
0.04 0.04 0.05 0.06 0.10 0.15 0.20 0.27 0.44 0.57 0.66 0.66 0.62 0.46 0.33 0.23 0.15 0.08 0.03 0.01 0.00 0.01 0.00 0.00 0.00 0.00 0.00 0.00 0.00 0.00 0.00 0.00 0.00 0.00 0.00 0.00 0.00 0.00
0.02 0.02 0.02 0.02 0.03 0.05 0.10 0.17 0.21 0.27 0.36 0.49 0.51 0.49 0.54 0.41 0.25 0.13 0.06 0.02 0.01 0.01 0.01 0.00 0.00 0.00 0.00 0.00 0.00 0.00 0.00 0.00 0.00 0.00 0.00 0.00 0.00 0.00
0.02 0.01 0.02 0.02 0.02 0.04 0.05 0.07 0.11 0.19 0.24 0.25 0.32 0.48 0.62 0.68 0.50 0.29 0.18 0.09 0.03 0.01 0.00 0.00 0.00 0.00 0.00 0.00 0.00 0.00 0.00 0.00 0.00 0.00 0.00 0.00 0.00 0.00
0.06 0.04 0.03 0.02 0.04 0.06 0.06 0.06 0.10 0.19 0.22 0.29 0.38 0.44 0.48 0.54 0.54 0.40 0.26 0.16 0.08 0.03 0.02 0.01 0.00 0.00 0.00 0.00 0.00 0.00 0.00 0.00 0.00 0.00 0.00 0.00 0.00 0.00
0.12 0.07 0.07 0.07 0.08 0.09 0.08 0.09 0.08 0.11 0.18 0.23 0.25 0.25 0.26 0.28 0.33 0.29 0.27 0.24 0.16 0.09 0.06 0.03 0.01 0.02 0.01 0.00 0.00 0.00 0.00 0.00 0.00 0.00 0.00 0.00 0.00 0.00
0.14 0.12 0.12 0.14 0.12 0.10 0.08 0.06 0.08 0.09 0.10 0.11 0.11 0.12 0.12 0.13 0.15 0.20 0.22 0.21 0.22 0.22 0.15 0.10 0.06 0.04 0.03 0.01 0.01 0.01 0.00 0.00 0.00 0.00 0.00 0.00 0.00 0.00
0.21 0.21 0.20 0.27 0.20 0.10 0.05 0.05 0.07 0.06 0.05 0.05 0.05 0.07 0.09 0.11 0.11 0.15 0.18 0.16 0.15 0.18 0.18 0.14 0.10 0.08 0.07 0.05 0.03 0.02 0.02 0.01 0.00 0.00 0.00 0.00 0.00 0.00
0.25 0.29 0.32 0.27 0.15 0.09 0.08 0.08 0.07 0.06 0.06 0.06 0.05 0.06 0.06 0.09 0.14 0.20 0.25 0.27 0.26 0.23 0.21 0.20 0.16 0.13 0.11 0.08 0.04 0.03 0.02 0.02 0.01 0.01 0.00 0.00 0.00 0.00
0.19 0.24 0.24 0.16 0.10 0.10 0.09 0.08 0.08 0.09 0.07 0.05 0.03 0.03 0.04 0.04 0.07 0.12 0.20 0.29 0.34 0.36 0.37 0.38 0.32 0.26 0.22 0.18 0.12 0.08 0.06 0.05 0.04 0.04 0.04 0.03 0.02 0.01
0.34 0.23 0.20 0.18 0.16 0.11 0.07 0.06 0.08 0.08 0.07 0.05 0.03 0.03 0.03 0.04 0.04 0.05 0.07 0.12 0.18 0.23 0.29 0.37 0.42 0.41 0.36 0.30 0.26 0.20 0.16 0.13 0.11 0.11 0.10 0.08 0.06 0.04
0.59 0.54 0.52 0.50 0.44 0.30 0.12 0.05 0.05 0.05 0.05 0.04 0.03 0.03 0.03 0.04 0.05 0.05 0.05 0.07 0.09 0.12 0.17 0.23 0.32 0.41 0.44 0.39 0.31 0.27 0.24 0.20 0.18 0.18 0.17 0.15 0.12 0.12
0.70 0.74 0.71 0.57 0.44 0.34 0.20 0.09 0.07 0.06 0.05 0.04 0.04 0.04 0.04 0.04 0.04 0.03 0.03 0.04 0.05 0.07 0.12 0.17 0.22 0.29 0.35 0.31 0.28 0.29 0.28 0.26 0.26 0.25 0.23 0.21 0.18 0.19
0.59 0.57 0.49 0.39 0.30 0.20 0.16 0.11 0.06 0.06 0.07 0.06 0.05 0.04 0.02 0.02 0.02 0.02 0.02 0.02 0.02 0.03 0.04 0.07 0.09 0.12 0.15 0.17 0.18 0.17 0.22 0.25 0.25 0.23 0.21 0.22 0.21 0.23
0.31 0.25 0.19 0.14 0.12 0.08 0.07 0.06 0.03 0.03 0.03 0.02 0.02 0.01 0.01 0.01 0.01 0.01 0.01 0.03 0.03 0.02 0.02 0.02 0.03 0.07 0.10 0.16 0.17 0.12 0.11 0.21 0.25 0.22 0.21 0.23 0.24 0.23
0.11 0.09 0.06 0.03 0.04 0.03 0.01 0.01 0.01 0.01 0.01 0.01 0.01 0.01 0.02 0.02 0.02 0.02 0.02 0.03 0.03 0.03 0.03 0.03 0.03 0.06 0.09 0.11 0.13 0.13 0.13 0.19 0.29 0.38 0.33 0.28 0.23 0.18
0.05 0.05 0.03 0.02 0.01 0.01 0.01 0.02 0.03 0.03 0.03 0.03 0.02 0.02 0.02 0.02 0.02 0.02 0.03 0.04 0.04 0.04 0.04 0.04 0.05 0.07 0.09 0.10 0.13 0.17 0.21 0.22 0.24 0.31 0.38 0.44 0.34 0.19

GEFSNE_prec_meanprecacc_024.txt.gz
Total_Precipitation_Accumulation
0.62 0.74 0.87 0.94 0.83 0.62 0.53 0.47 0.39 0.33 0.30 0.26 0.11 0.01 0.01 0.00 0.00 0.00 0.00 0.00 0.00 0.00 0.00 0.00 0.00 0.00 0.00 0.00 0.00 0.00 0.00 0.00 0.00 0.00 0.00 0.00 0.01 0.01
0.47 0.58 0.66 0.73 0.86 0.81 0.65 0.57 0.47 0.36 0.30 0.24 0.24 0.08 0.04 0.02 0.01 0.00 0.00 0.00 0.00 0.00 0.00 0.00 0.00 0.00 0.00 0.00 0.00 0.00 0.00 0.00 0.00 0.00 0.00 0.00 0.00 0.01
0.25 0.34 0.47 0.68 0.88 0.88 0.81 0.68 0.57 0.47 0.38 0.26 0.21 0.11 0.07 0.05 0.04 0.01 0.00 0.00 0.00 0.00 0.00 0.00 0.00 0.00 0.00 0.00 0.00 0.00 0.00 0.00 0.00 0.00 0.00 0.00 0.00 0.01
0.16 0.19 0.31 0.56 0.81 0.94 0.99 0.92 0.78 0.66 0.63 0.51 0.30 0.15 0.11 0.10 0.07 0.04 0.02 0.01 0.00 0.00 0.00 0.00 0.00 0.00 0.00 0.00 0.00 0.00 0.00 0.00 0.00 0.01 0.01 0.01 0.01 0.01
0.21 0.21 0.22 0.35 0.57 0.76 0.88 0.92 0.87 0.81 0.79 0.69 0.48 0.32 0.23 0.14 0.08 0.05 0.03 0.02 0.02 0.01 0.00 0.00 0.00 0.00 0.00 0.00 0.00 0.00 0.00 0.00 0.00 0.00 0.00 0.01 0.00 0.00
0.14 0.19 0.22 0.24 0.34 0.48 0.62 0.73 0.86 0.94 0.94 0.87 0.68 0.43 0.38 0.23 0.11 0.07 0.06 0.03 0.02 0.02 0.01 0.00 0.00 0.00 0.00 0.00 0.00 0.00 0.00 0.00 0.00 0.00 0.00 0.00 0.00 0.00
0.05 0.07 0.11 0.15 0.20 0.29 0.37 0.54 0.79 0.96 1.01 1.01 0.91 0.62 0.42 0.29 0.15 0.10 0.08 0.07 0.04 0.01 0.01 0.01 0.00 0.00 0.00 0.00 0.00 0.00 0.00 0.00 0.00 0.00 0.00 0.00 0.00 0.00
0.05 0.04 0.05 0.06 0.10 0.16 0.21 0.28 0.46 0.63 0.76 0.79 0.79 0.64 0.48 0.38 0.30 0.20 0.11 0.07 0.06 0.04 0.02 0.03 0.01 0.01 0.01 0.01 0.00 0.00 0.00 0.00 0.00 0.00 0.00 0.00 0.00 0.00
0.06 0.04 0.03 0.02 0.03 0.06 0.11 0.17 0.21 0.27 0.38 0.54 0.59 0.60 0.67 0.55 0.39 0.26 0.18 0.12 0.10 0.08 0.05 0.04 0.03 0.01 0.02 0.01 0.00 0.00 0.00 0.00 0.00 0.00 0.00 0.00 0.00 0.00
0.08 0.05 0.04 0.03 0.03 0.04 0.05 0.08 0.12 0.19 0.24 0.26 0.34 0.53 0.68 0.78 0.65 0.46 0.37 0.27 0.19 0.12 0.09 0.06 0.04 0.03 0.01 0.01 0.00 0.00 0.00 0.00 0.00 0.00 0.00 0.00 0.00 0.00
0.15 0.09 0.06 0.05 0.07 0.07 0.06 0.08 0.12 0.20 0.22 0.29 0.39 0.45 0.50 0.57 0.60 0.51 0.43 0.36 0.28 0.21 0.18 0.12 0.07 0.05 0.03 0.01 0.01 0.00 0.00 0.00 0.00 0.00 0.00 0.00 0.00 0.00
0.23 0.15 0.16 0.14 0.14 0.11 0.09 0.11 0.12 0.14 0.19 0.24 0.26 0.26 0.27 0.31 0.37 0.38 0.40 0.40 0.35 0.28 0.23 0.18 0.13 0.11 0.07 0.04 0.02 0.01 0.01 0.01 0.01 0.00 0.00 0.00 0.00 0.00
0.24 0.21 0.18 0.22 0.18 0.14 0.10 0.08 0.12 0.11 0.11 0.14 0.13 0.14 0.15 0.16 0.20 0.27 0.31 0.32 0.35 0.38 0.32 0.25 0.19 0.16 0.12 0.09 0.06 0.04 0.03 0.02 0.01 0.01 0.01 0.01 0.01 0.00
0.26 0.26 0.24 0.33 0.24 0.13 0.07 0.07 0.10 0.08 0.07 0.09 0.09 0.11 0.13 0.14 0.13 0.18 0.22 0.22 0.22 0.25 0.25 0.20 0.17 0.16 0.16 0.13 0.11 0.10 0.09 0.07 0.05 0.04 0.04 0.04 0.03 0.02
0.26 0.31 0.34 0.30 0.19 0.12 0.10 0.11 0.10 0.09 0.09 0.10 0.09 0.09 0.08 0.10 0.15 0.21 0.26 0.28 0.28 0.24 0.22 0.21 0.19 0.16 0.15 0.12 0.10 0.09 0.09 0.08 0.07 0.06 0.06 0.05 0.05 0.04
0.19 0.25 0.26 0.18 0.13 0.13 0.12 0.11 0.11 0.12 0.11 0.08 0.06 0.05 0.05 0.06 0.08 0.13 0.21 0.30 0.37 0.38 0.38 0.38 0.33 0.27 0.24 0.20 0.14 0.11 0.10 0.09 0.09 0.10 0.10 0.08 0.08 0.07
0.35 0.25 0.23 0.21 0.19 0.14 0.09 0.08 0.10 0.11 0.10 0.07 0.06 0.05 0.06 0.06 0.05 0.06 0.08 0.13 0.20 0.26 0.32 0.38 0.43 0.41 0.36 0.31 0.27 0.22 0.18 0.16 0.14 0.14 0.13 0.12 0.10 0.10
0.63 0.59 0.57 0.54 0.47 0.33 0.14 0.06 0.05 0.06 0.07 0.06 0.05 0.05 0.05 0.06 0.07 0.06 0.06 0.09 0.12 0.15 0.19 0.24 0.33 0.41 0.44 0.40 0.32 0.28 0.26 0.22 0.20 0.20 0.18 0.16 0.14 0.14
0.75 0.79 0.76 0.62 0.47 0.36 0.22 0.10 0.08 0.07 0.06 0.06 0.05 0.05 0.05 0.05 0.05 0.04 0.04 0.05 0.07 0.09 0.13 0.18 0.23 0.30 0.36 0.33 0.30 0.30 0.30 0.29 0.29 0.27 0.26 0.24 0.20 0.21
0.62 0.60 0.52 0.42 0.34 0.22 0.18 0.14 0.08 0.07 0.08 0.07 0.07 0.06 0.04 0.03 0.03 0.03 0.03 0.03 0.03 0.04 0.06 0.08 0.11 0.13 0.16 0.19 0.20 0.19 0.23 0.27 0.28 0.25 0.23 0.24 0.22 0.24
0.33 0.27 0.21 0.17 0.15 0.11 0.09 0.08 0.05 0.04 0.04 0.04 0.05 0.05 0.04 0.03 0.02 0.02 0.03 0.04 0.04 0.04 0.04 0.04 0.05 0.09 0.12 0.18 0.20 0.14 0.14 0.23 0.26 0.23 0.22 0.24 0.25 0.25
0.12 0.10 0.07 0.05 0.05 0.04 0.03 0.02 0.02 0.02 0.02 0.02 0.03 0.03 0.03 0.03 0.03 0.03 0.03 0.04 0.04 0.04 0.04 0.04 0.05 0.08 0.11 0.14 0.17 0.16 0.15 0.20 0.30 0.38 0.33 0.29 0.24 0.20
0.06 0.06 0.03 0.02 0.01 0.01 0.02 0.03 0.03 0.03 0.03 0.03 0.03 0.03 0.03 0.02 0.02 0.03 0.04 0.04 0.04 0.04 0.04 0.05 0.06 0.08 0.11 0.12 0.15 0.19 0.22 0.23 0.25 0.32 0.39 0.46 0.36 0.23

GEFSNE_prec_meanprecacc_030.txt.gz
Total_Precipitation_Accumulation
0.65 0.77 0.91 0.98 0.89 0.69 0.62 0.59 0.54 0.49 0.46 0.38 0.18 0.05 0.03 0.01 0.00 0.00 0.00 0.00 0.00 0.00 0.00 0.00 0.00 0.00 0.00 0.00 0.00 0.00 0.00 0.00 0.00 0.00 0.00 0.00 0.01 0.01
0.49 0.60 0.68 0.76 0.92 0.88 0.74 0.70 0.63 0.53 0.47 0.39 0.33 0.16 0.11 0.06 0.03 0.01 0.00 0.00 0.00 0.00 0.00 0.00 0.00 0.00 0.00 0.00 0.00 0.00 0.00 0.00 0.00 0.00 0.00 0.00 0.00 0.01
0.26 0.35 0.49 0.71 0.95 0.97 0.92 0.82 0.73 0.64 0.52 0.44 0.33 0.20 0.19 0.16 0.11 0.04 0.01 0.00 0.00 0.00 0.00 0.00 0.00 0.00 0.00 0.00 0.00 0.00 0.00 0.00 0.00 0.00 0.00 0.00 0.00 0.01
0.16 0.20 0.32 0.59 0.87 1.03 1.11 1.05 0.91 0.81 0.77 0.68 0.46 0.27 0.23 0.26 0.28 0.21 0.09 0.04 0.02 0.03 0.03 0.01 0.00 0.00 0.00 0.00 0.00 0.00 0.00 0.00 0.00 0.01 0.01 0.01 0.01 0.01
0.21 0.22 0.23 0.37 0.61 0.84 0.98 1.04 1.00 0.96 0.96 0.83 0.62 0.47 0.37 0.29 0.25 0.21 0.16 0.13 0.09 0.08 0.11 0.07 0.02 0.00 0.00 0.00 0.00 0.00 0.00 0.00 0.00 0.00 0.00 0.01 0.00 0.00
0.15 0.19 0.22 0.25 0.36 0.51 0.68 0.82 0.97 1.08 1.11 1.03 0.83 0.59 0.53 0.38 0.26 0.23 0.23 0.21 0.17 0.13 0.11 0.09 0.06 0.02 0.01 0.01 0.00 0.00 0.00 0.00 0.00 0.00 0.00 0.00 0.00 0.00
0.06 0.07 0.11 0.15 0.21 0.30 0.39 0.58 0.87 1.07 1.15 1.16 1.07 0.80 0.59 0.42 0.26 0.23 0.23 0.26 0.25 0.21 0.18 0.14 0.11 0.07 0.05 0.04 0.03 0.02 0.01 0.01 0.00 0.00 0.00 0.00 0.00 0.00
0.07 0.05 0.06 0.07 0.11 0.17 0.21 0.29 0.48 0.67 0.84 0.91 0.93 0.80 0.67 0.54 0.43 0.31 0.22 0.18 0.19 0.19 0.20 0.24 0.25 0.21 0.20 0.17 0.16 0.16 0.09 0.03 0.01 0.00 0.00 0.00 0.00 0.00
0.09 0.07 0.05 0.04 0.04 0.07 0.13 0.19 0.23 0.29 0.40 0.57 0.67 0.71 0.78 0.66 0.51 0.36 0.26 0.22 0.22 0.21 0.19 0.22 0.26 0.26 0.27 0.22 0.17 0.15 0.11 0.06 0.02 0.01 0.00 0.00 0.00 0.00
0.11 0.07 0.08 0.07 0.09 0.10 0.09 0.12 0.17 0.23 0.28 0.27 0.39 0.60 0.73 0.83 0.70 0.52 0.45 0.35 0.28 0.21 0.17 0.16 0.17 0.18 0.16 0.15 0.11 0.08 0.06 0.04 0.02 0.01 0.01 0.00 0.00 0.00
0.20 0.15 0.12 0.14 0.25 0.18 0.10 0.13 0.19 0.27 0.28 0.33 0.40 0.46 0.50 0.58 0.62 0.55 0.47 0.39 0.33 0.27 0.24 0.19 0.15 0.13 0.10 0.08 0.06 0.05 0.04 0.03 0.02 0.01 0.01 0.01 0.00 0.00
0.32 0.25 0.31 0.27 0.31 0.22 0.11 0.18 0.25 0.26 0.25 0.30 0.31 0.29 0.30 0.33 0.38 0.40 0.47 0.47 0.42 0.35 0.29 0.22 0.18 0.16 0.12 0.08 0.05 0.03 0.02 0.02 0.02 0.02 0.02 0.02 0.02 0.02
0.35 0.35 0.29 0.32 0.24 0.19 0.13 0.14 0.24 0.20 0.17 0.23 0.23 0.24 0.23 0.24 0.26 0.32 0.38 0.39 0.42 0.45 0.37 0.29 0.24 0.20 0.16 0.12 0.09 0.06 0.04 0.03 0.03 0.03 0.04 0.04 0.04 0.03
0.35 0.34 0.30 0.39 0.27 0.15 0.08 0.10 0.14 0.12 0.15 0.21 0.22 0.22 0.22 0.21 0.19 0.22 0.26 0.27 0.29 0.32 0.31 0.24 0.21 0.19 0.18 0.15 0.14 0.12 0.11 0.09 0.07 0.06 0.05 0.06 0.06 0.06
0.29 0.35 0.37 0.33 0.21 0.13 0.12 0.12 0.12 0.14 0.19 0.22 0.19 0.16 0.14 0.14 0.18 0.23 0.28 0.31 0.32 0.27 0.25 0.25 0.23 0.20 0.18 0.16 0.13 0.12 0.12 0.11 0.09 0.08 0.07 0.07 0.07 0.08
0.23 0.28 0.28 0.20 0.16 0.16 0.15 0.14 0.16 0.19 0.21 0.17 0.11 0.08 0.08 0.10 0.12 0.16 0.23 0.35 0.45 0.46 0.44 0.43 0.37 0.31 0.28 0.24 0.18 0.15 0.15 0.15 0.14 0.14 0.12 0.11 0.10 0.10
0.40 0.34 0.31 0.30 0.27 0.21 0.16 0.15 0.16 0.17 0.16 0.13 0.11 0.11 0.11 0.12 0.10 0.09 0.11 0.17 0.25 0.32 0.38 0.42 0.45 0.43 0.38 0.33 0.31 0.26 0.23 0.21 0.19 0.19 0.16 0.13 0.12 0.13
0.71 0.69 0.66 0.62 0.55 0.40 0.20 0.12 0.10 0.12 0.13 0.13 0.12 0.11 0.10 0.11 0.11 0.09 0.08 0.11 0.15 0.19 0.23 0.27 0.34 0.42 0.46 0.43 0.35 0.32 0.30 0.26 0.24 0.24 0.22 0.18 0.16 0.19
0.82 0.85 0.82 0.68 0.53 0.42 0.26 0.13 0.09 0.09 0.09 0.09 0.09 0.09 0.08 0.08 0.07 0.06 0.06 0.07 0.09 0.11 0.15 0.19 0.24 0.31 0.37 0.35 0.33 0.32 0.32 0.32 0.31 0.30 0.29 0.27 0.23 0.24
0.63 0.62 0.54 0.45 0.36 0.25 0.20 0.16 0.09 0.07 0.08 0.08 0.07 0.07 0.05 0.04 0.05 0.05 0.05 0.04 0.05 0.05 0.07 0.10 0.12 0.14 0.18 0.21 0.22 0.22 0.24 0.28 0.30 0.26 0.24 0.25 0.23 0.25
0.33 0.27 0.22 0.18 0.16 0.11 0.10 0.09 0.05 0.04 0.05 0.05 0.06 0.06 0.04 0.04 0.04 0.03 0.04 0.04 0.04 0.04 0.05 0.06 0.07 0.09 0.13 0.19 0.22 0.18 0.17 0.24 0.26 0.23 0.22 0.24 0.25 0.25
0.13 0.11 0.08 0.05 0.05 0.05 0.03 0.03 0.02 0.02 0.02 0.03 0.03 0.04 0.04 0.03 0.04 0.04 0.04 0.05 0.05 0.05 0.05 0.05 0.06 0.08 0.12 0.15 0.18 0.17 0.17 0.21 0.31 0.39 0.34 0.30 0.24 0.21
0.06 0.06 0.03 0.02 0.01 0.01 0.02 0.03 0.03 0.03 0.03 0.03 0.03 0.03 0.03 0.03 0.03 0.03 0.04 0.05 0.05 0.05 0.05 0.05 0.06 0.09 0.11 0.13 0.16 0.20 0.23 0.24 0.26 0.33 0.41 0.47 0.37 0.23

GEFSNE_prec_meanprecacc_036.txt.gz
Total_Precipitation_Accumulation
0.71 0.81 0.94 1.01 0.91 0.71 0.64 0.61 0.55 0.50 0.47 0.38 0.19 0.06 0.05 0.04 0.03 0.01 0.00 0.00 0.00 0.00 0.00 0.00 0.00 0.00 0.00 0.00 0.00 0.00 0.00 0.00 0.00 0.00 0.00 0.00 0.01 0.01
0.54 0.63 0.71 0.78 0.93 0.89 0.75 0.72 0.65 0.55 0.48 0.40 0.35 0.17 0.14 0.10 0.06 0.03 0.02 0.01 0.00 0.00 0.00 0.00 0.00 0.00 0.00 0.00 0.00 0.00 0.00 0.00 0.00 0.00 0.00 0.00 0.00 0.01
0.28 0.37 0.50 0.73 0.96 0.98 0.93 0.83 0.75 0.67 0.54 0.45 0.35 0.21 0.21 0.19 0.15 0.08 0.04 0.02 0.01 0.01 0.00 0.00 0.00 0.00 0.00 0.00 0.00 0.00 0.00 0.00 0.00 0.00 0.00 0.00 0.00 0.01
0.18 0.22 0.34 0.60 0.88 1.04 1.11 1.06 0.93 0.83 0.78 0.69 0.48 0.29 0.25 0.29 0.32 0.26 0.14 0.08 0.06 0.06 0.06 0.03 0.01 0.01 0.01 0.00 0.00 0.00 0.00 0.00 0.00 0.01 0.01 0.01 0.01 0.01
0.24 0.23 0.24 0.38 0.61 0.84 0.98 1.04 1.01 0.97 0.97 0.84 0.64 0.49 0.40 0.31 0.28 0.25 0.21 0.19 0.16 0.16 0.21 0.19 0.13 0.08 0.04 0.03 0.01 0.01 0.00 0.00 0.00 0.00 0.00 0.01 0.00 0.00
0.20 0.22 0.24 0.26 0.36 0.52 0.68 0.82 0.97 1.09 1.12 1.04 0.86 0.62 0.57 0.41 0.28 0.26 0.26 0.25 0.25 0.22 0.21 0.25 0.25 0.19 0.14 0.10 0.07 0.04 0.03 0.02 0.01 0.00 0.00 0.00 0.00 0.00
0.16 0.13 0.14 0.17 0.21 0.30 0.40 0.58 0.87 1.08 1.16 1.16 1.08 0.82 0.61 0.45 0.29 0.27 0.28 0.33 0.34 0.32 0.33 0.30 0.29 0.27 0.26 0.24 0.20 0.15 0.11 0.08 0.05 0.03 0.02 0.01 0.00 0.00
0.19 0.14 0.12 0.10 0.13 0.18 0.22 0.29 0.49 0.67 0.84 0.91 0.93 0.81 0.67 0.55 0.45 0.35 0.26 0.23 0.25 0.29 0.34 0.41 0.42 0.40 0.44 0.41 0.40 0.42 0.34 0.24 0.16 0.11 0.07 0.04 0.02 0.01
0.20 0.19 0.15 0.11 0.10 0.12 0.16 0.21 0.25 0.31 0.41 0.57 0.68 0.72 0.78 0.66 0.52 0.38 0.29 0.24 0.26 0.28 0.26 0.32 0.39 0.43 0.48 0.47 0.44 0.43 0.37 0.30 0.23 0.18 0.13 0.08 0.04 0.02
0.18 0.15 0.16 0.16 0.18 0.20 0.15 0.16 0.22 0.27 0.30 0.29 0.40 0.61 0.74 0.83 0.71 0.53 0.46 0.37 0.30 0.25 0.22 0.22 0.24 0.29 0.31 0.32 0.31 0.29 0.26 0.23 0.21 0.20 0.17 0.13 0.09 0.06
0.24 0.19 0.18 0.22 0.36 0.29 0.16 0.18 0.25 0.33 0.33 0.37 0.42 0.47 0.51 0.58 0.63 0.56 0.48 0.40 0.34 0.30 0.27 0.22 0.18 0.15 0.13 0.13 0.13 0.13 0.12 0.10 0.09 0.09 0.09 0.08 0.08 0.07
0.34 0.28 0.36 0.33 0.38 0.28 0.17 0.23 0.31 0.33 0.32 0.36 0.35 0.33 0.32 0.34 0.39 0.41 0.47 0.48 0.43 0.37 0.30 0.23 0.18 0.16 0.13 0.09 0.07 0.05 0.05 0.05 0.05 0.04 0.04 0.04 0.05 0.05
0.37 0.37 0.33 0.36 0.27 0.22 0.16 0.17 0.28 0.26 0.23 0.29 0.28 0.27 0.25 0.25 0.27 0.33 0.38 0.39 0.43 0.45 0.38 0.29 0.24 0.20 0.16 0.12 0.10 0.07 0.05 0.04 0.03 0.03 0.04 0.05 0.05 0.04
0.35 0.35 0.32 0.41 0.29 0.16 0.10 0.12 0.17 0.15 0.18 0.25 0.26 0.27 0.25 0.22 0.20 0.23 0.26 0.27 0.29 0.33 0.31 0.25 0.22 0.19 0.18 0.15 0.14 0.13 0.11 0.09 0.07 0.06 0.05 0.06 0.06 0.06
0.29 0.36 0.39 0.34 0.22 0.14 0.14 0.15 0.15 0.16 0.22 0.25 0.23 0.18 0.15 0.15 0.19 0.25 0.30 0.32 0.33 0.28 0.25 0.25 0.23 0.21 0.19 0.16 0.13 0.12 0.12 0.11 0.09 0.09 0.08 0.07 0.07 0.08
0.25 0.31 0.32 0.24 0.19 0.18 0.18 0.17 0.18 0.21 0.23 0.20 0.13 0.08 0.08 0.11 0.13 0.17 0.25 0.36 0.46 0.47 0.44 0.43 0.37 0.31 0.28 0.24 0.18 0.15 0.15 0.15 0.14 0.14 0.13 0.11 0.10 0.10
0.43 0.36 0.34 0.33 0.29 0.23 0.18 0.17 0.18 0.18 0.17 0.15 0.12 0.12 0.12 0.13 0.10 0.09 0.12 0.17 0.25 0.32 0.38 0.43 0.45 0.43 0.38 0.33 0.31 0.27 0.24 0.21 0.20 0.20 0.17 0.14 0.12 0.13
0.73 0.71 0.68 0.64 0.57 0.42 0.22 0.13 0.11 0.12 0.13 0.13 0.13 0.12 0.10 0.11 0.11 0.09 0.09 0.11 0.15 0.19 0.23 0.27 0.34 0.42 0.46 0.43 0.35 0.32 0.30 0.26 0.24 0.24 0.22 0.18 0.16 0.19
0.83 0.86 0.83 0.69 0.54 0.43 0.27 0.14 0.09 0.09 0.09 0.09 0.09 0.09 0.08 0.08 0.08 0.07 0.06 0.07 0.09 0.11 0.15 0.20 0.24 0.31 0.37 0.35 0.33 0.32 0.32 0.32 0.32 0.30 0.29 0.27 0.23 0.24
0.63 0.62 0.55 0.45 0.36 0.25 0.21 0.16 0.09 0.08 0.08 0.08 0.08 0.07 0.05 0.05 0.05 0.06 0.05 0.04 0.05 0.05 0.07 0.10 0.12 0.14 0.18 0.21 0.23 0.22 0.24 0.28 0.30 0.26 0.24 0.25 0.23 0.25
0.33 0.27 0.22 0.18 0.16 0.12 0.10 0.09 0.05 0.04 0.05 0.05 0.06 0.06 0.05 0.04 0.04 0.03 0.04 0.04 0.04 0.05 0.05 0.06 0.07 0.09 0.13 0.19 0.22 0.18 0.17 0.24 0.26 0.23 0.22 0.24 0.25 0.25
0.13 0.11 0.08 0.05 0.05 0.05 0.03 0.03 0.02 0.02 0.02 0.03 0.03 0.04 0.04 0.03 0.04 0.04 0.04 0.05 0.05 0.05 0.05 0.05 0.06 0.08 0.12 0.15 0.18 0.17 0.17 0.21 0.31 0.39 0.34 0.30 0.24 0.21
0.06 0.06 0.03 0.02 0.01 0.01 0.02 0.03 0.03 0.03 0.03 0.03 0.03 0.03 0.03 0.03 0.03 0.03 0.04 0.05 0.05 0.05 0.05 0.05 0.06 0.09 0.11 0.13 0.16 0.20 0.23 0.24 0.26 0.33 0.41 0.47 0.37 0.23

GEFSNE_prec_meanprecacc_042.txt.gz
Total_Precipitation_Accumulation
0.87 0.94 1.05 1.09 0.97 0.76 0.68 0.63 0.56 0.50 0.47 0.38 0.19 0.06 0.05 0.04 0.03 0.01 0.01 0.01 0.02 0.02 0.01 0.01 0.01 0.01 0.01 0.01 0.01 0.01 0.01 0.01 0.01 0.01 0.01 0.00 0.01 0.01
0.66 0.73 0.79 0.84 0.98 0.93 0.79 0.74 0.66 0.56 0.49 0.41 0.35 0.17 0.14 0.10 0.07 0.04 0.03 0.02 0.02 0.02 0.01 0.01 0.01 0.01 0.01 0.01 0.01 0.01 0.00 0.00 0.00 0.00 0.00 0.00 0.01 0.01
0.38 0.44 0.55 0.77 1.00 1.02 0.96 0.85 0.77 0.67 0.54 0.46 0.35 0.21 0.21 0.19 0.16 0.08 0.04 0.02 0.02 0.02 0.01 0.01 0.01 0.00 0.01 0.00 0.00 0.00 0.00 0.00 0.00 0.00 0.00 0.00 0.00 0.01
0.26 0.29 0.40 0.65 0.92 1.07 1.14 1.07 0.94 0.83 0.79 0.70 0.48 0.29 0.25 0.29 0.32 0.26 0.15 0.08 0.06 0.07 0.07 0.04 0.02 0.02 0.02 0.01 0.01 0.01 0.01 0.00 0.00 0.01 0.01 0.01 0.01 0.01
0.32 0.30 0.30 0.42 0.65 0.86 1.00 1.06 1.02 0.98 0.98 0.84 0.64 0.49 0.40 0.32 0.28 0.26 0.22 0.20 0.17 0.17 0.22 0.22 0.17 0.11 0.08 0.06 0.04 0.03 0.02 0.02 0.02 0.01 0.01 0.01 0.01 0.01
0.28 0.28 0.29 0.29 0.38 0.53 0.69 0.83 0.98 1.10 1.13 1.04 0.86 0.62 0.57 0.41 0.28 0.26 0.26 0.26 0.26 0.23 0.23 0.28 0.29 0.24 0.18 0.15 0.12 0.10 0.08 0.07 0.05 0.04 0.03 0.02 0.02 0.02
0.25 0.20 0.19 0.20 0.23 0.31 0.40 0.59 0.87 1.08 1.16 1.16 1.08 0.82 0.61 0.45 0.29 0.27 0.28 0.34 0.34 0.33 0.34 0.32 0.32 0.31 0.31 0.31 0.29 0.25 0.21 0.18 0.15 0.11 0.09 0.08 0.06 0.04
0.28 0.23 0.18 0.14 0.15 0.19 0.23 0.30 0.49 0.67 0.84 0.91 0.93 0.81 0.67 0.55 0.45 0.35 0.26 0.24 0.26 0.31 0.35 0.43 0.45 0.43 0.49 0.48 0.50 0.55 0.50 0.40 0.33 0.28 0.24 0.20 0.17 0.14
0.29 0.28 0.21 0.16 0.14 0.14 0.17 0.21 0.25 0.31 0.41 0.57 0.68 0.72 0.78 0.66 0.52 0.38 0.29 0.25 0.27 0.29 0.28 0.34 0.42 0.46 0.53 0.55 0.56 0.57 0.54 0.47 0.40 0.37 0.33 0.28 0.23 0.20
0.24 0.21 0.21 0.21 0.22 0.23 0.17 0.18 0.23 0.28 0.31 0.29 0.40 0.61 0.74 0.84 0.71 0.53 0.46 0.37 0.31 0.26 0.23 0.23 0.27 0.32 0.36 0.39 0.40 0.36 0.34 0.32 0.31 0.31 0.29 0.25 0.22 0.19
0.29 0.24 0.23 0.26 0.40 0.33 0.19 0.21 0.27 0.34 0.33 0.37 0.42 0.48 0.51 0.59 0.63 0.56 0.48 0.40 0.35 0.31 0.29 0.27 0.23 0.19 0.16 0.16 0.17 0.16 0.14 0.13 0.12 0.12 0.13 0.13 0.13 0.13
0.38 0.33 0.41 0.37 0.41 0.31 0.19 0.26 0.34 0.34 0.33 0.37 0.36 0.33 0.32 0.35 0.39 0.41 0.47 0.48 0.43 0.38 0.31 0.26 0.24 0.21 0.16 0.11 0.08 0.06 0.05 0.05 0.05 0.05 0.05 0.05 0.06 0.06
0.41 0.41 0.36 0.39 0.30 0.24 0.19 0.19 0.31 0.28 0.25 0.30 0.28 0.27 0.25 0.25 0.27 0.33 0.39 0.40 0.43 0.46 0.38 0.29 0.24 0.21 0.16 0.13 0.10 0.07 0.05 0.04 0.03 0.03 0.04 0.05 0.05 0.05
0.38 0.38 0.34 0.44 0.32 0.19 0.13 0.16 0.22 0.21 0.20 0.27 0.28 0.28 0.25 0.22 0.20 0.23 0.27 0.28 0.30 0.33 0.31 0.25 0.22 0.19 0.18 0.15 0.14 0.13 0.11 0.09 0.07 0.06 0.05 0.07 0.06 0.06
0.31 0.38 0.41 0.36 0.24 0.16 0.17 0.19 0.19 0.19 0.24 0.27 0.24 0.19 0.16 0.15 0.20 0.25 0.31 0.33 0.33 0.28 0.25 0.25 0.23 0.21 0.19 0.16 0.13 0.12 0.12 0.11 0.09 0.09 0.08 0.07 0.07 0.08
0.26 0.32 0.33 0.26 0.21 0.20 0.21 0.20 0.21 0.24 0.26 0.21 0.14 0.09 0.09 0.11 0.14 0.17 0.26 0.37 0.46 0.47 0.44 0.43 0.37 0.31 0.28 0.24 0.18 0.15 0.15 0.15 0.14 0.15 0.13 0.11 0.11 0.10
0.44 0.37 0.35 0.34 0.30 0.24 0.19 0.18 0.19 0.20 0.18 0.15 0.13 0.13 0.13 0.14 0.11 0.10 0.12 0.18 0.26 0.32 0.38 0.43 0.45 0.43 0.38 0.33 0.31 0.27 0.24 0.22 0.20 0.20 0.17 0.14 0.13 0.13
0.74 0.72 0.69 0.65 0.58 0.42 0.23 0.13 0.12 0.13 0.14 0.13 0.13 0.12 0.11 0.11 0.11 0.10 0.09 0.12 0.15 0.19 0.23 0.27 0.34 0.42 0.46 0.43 0.35 0.32 0.30 0.26 0.24 0.24 0.22 0.18 0.16 0.19
0.84 0.87 0.84 0.70 0.54 0.44 0.27 0.14 0.10 0.09 0.09 0.09 0.09 0.09 0.08 0.08 0.08 0.07 0.06 0.07 0.09 0.11 0.15 0.20 0.24 0.31 0.37 0.35 0.33 0.32 0.32 0.32 0.32 0.30 0.29 0.27 0.23 0.24
0.64 0.62 0.55 0.45 0.37 0.25 0.21 0.16 0.09 0.08 0.08 0.08 0.08 0.07 0.06 0.05 0.05 0.06 0.06 0.04 0.05 0.05 0.07 0.10 0.12 0.14 0.18 0.21 0.23 0.22 0.24 0.28 0.30 0.26 0.24 0.25 0.23 0.25
0.33 0.27 0.22 0.18 0.16 0.12 0.11 0.09 0.05 0.04 0.05 0.05 0.06 0.06 0.05 0.05 0.04 0.03 0.04 0.04 0.04 0.05 0.05 0.06 0.07 0.09 0.13 0.19 0.22 0.18 0.17 0.24 0.26 0.23 0.22 0.24 0.25 0.25
0.13 0.11 0.08 0.05 0.05 0.05 0.03 0.03 0.02 0.02 0.03 0.03 0.03 0.04 0.04 0.04 0.04 0.04 0.04 0.05 0.05 0.05 0.05 0.05 0.06 0.08 0.12 0.15 0.18 0.17 0.17 0.21 0.31 0.39 0.34 0.30 0.24 0.21
0.06 0.06 0.03 0.02 0.01 0.01 0.02 0.03 0.03 0.03 0.03 0.03 0.03 0.03 0.03 0.03 0.03 0.03 0.04 0.05 0.05 0.05 0.05 0.05 0.06 0.09 0.11 0.13 0.16 0.20 0.23 0.24 0.26 0.33 0.41 0.47 0.37 0.23

GEFSNE_prec_meanprecacc_048.txt.gz
Total_Precipitation_Accumulation
1.06 1.13 1.22 1.26 1.13 0.92 0.81 0.72 0.64 0.57 0.51 0.41 0.20 0.07 0.06 0.04 0.03 0.02 0.01 0.02 0.03 0.03 0.02 0.02 0.02 0.02 0.02 0.02 0.01 0.01 0.01 0.01 0.01 0.01 0.01 0.01 0.01 0.02
0.84 0.91 0.95 1.01 1.14 1.09 0.93 0.85 0.74 0.62 0.53 0.43 0.36 0.18 0.15 0.10 0.07 0.04 0.03 0.03 0.03 0.02 0.02 0.02 0.02 0.01 0.01 0.01 0.01 0.01 0.01 0.01 0.01 0.01 0.01 0.01 0.01 0.01
0.52 0.60 0.71 0.90 1.13 1.16 1.09 0.96 0.86 0.75 0.61 0.50 0.37 0.22 0.22 0.20 0.16 0.09 0.04 0.03 0.03 0.02 0.02 0.02 0.01 0.01 0.01 0.01 0.01 0.01 0.01 0.01 0.01 0.01 0.01 0.01 0.01 0.01
0.38 0.42 0.54 0.78 1.04 1.18 1.24 1.17 1.03 0.90 0.85 0.75 0.52 0.30 0.26 0.30 0.33 0.26 0.15 0.09 0.07 0.07 0.07 0.05 0.03 0.02 0.02 0.02 0.01 0.02 0.02 0.01 0.01 0.01 0.02 0.02 0.02 0.02
0.45 0.45 0.45 0.57 0.78 0.97 1.09 1.14 1.09 1.03 1.03 0.89 0.67 0.50 0.41 0.32 0.29 0.26 0.22 0.21 0.17 0.17 0.22 0.22 0.17 0.12 0.09 0.06 0.05 0.04 0.03 0.04 0.04 0.03 0.04 0.04 0.03 0.03
0.41 0.41 0.40 0.40 0.50 0.64 0.79 0.91 1.03 1.14 1.17 1.08 0.88 0.64 0.58 0.42 0.30 0.28 0.28 0.28 0.27 0.24 0.24 0.29 0.30 0.25 0.19 0.17 0.14 0.12 0.11 0.10 0.09 0.09 0.09 0.09 0.08 0.07
0.36 0.31 0.30 0.30 0.31 0.38 0.46 0.65 0.92 1.12 1.19 1.19 1.10 0.83 0.62 0.46 0.30 0.29 0.31 0.36 0.36 0.36 0.39 0.36 0.36 0.35 0.35 0.33 0.31 0.27 0.24 0.21 0.19 0.17 0.16 0.15 0.15 0.15
0.40 0.34 0.29 0.23 0.21 0.24 0.28 0.34 0.54 0.71 0.87 0.93 0.94 0.82 0.68 0.56 0.46 0.36 0.28 0.26 0.28 0.33 0.38 0.45 0.47 0.46 0.52 0.51 0.53 0.57 0.52 0.45 0.40 0.36 0.34 0.31 0.31 0.29
0.40 0.40 0.35 0.27 0.24 0.25 0.24 0.24 0.27 0.33 0.43 0.59 0.69 0.73 0.79 0.66 0.52 0.39 0.31 0.28 0.29 0.31 0.30 0.37 0.44 0.49 0.56 0.58 0.58 0.59 0.56 0.50 0.45 0.42 0.40 0.37 0.33 0.29
0.37 0.33 0.35 0.33 0.31 0.32 0.24 0.25 0.27 0.29 0.32 0.30 0.41 0.62 0.74 0.84 0.71 0.54 0.47 0.38 0.32 0.28 0.25 0.26 0.29 0.35 0.38 0.41 0.42 0.39 0.36 0.35 0.36 0.36 0.34 0.30 0.25 0.22
0.40 0.34 0.34 0.35 0.48 0.43 0.29 0.31 0.33 0.36 0.35 0.40 0.44 0.48 0.51 0.59 0.63 0.57 0.50 0.42 0.36 0.32 0.31 0.29 0.25 0.22 0.20 0.19 0.20 0.19 0.17 0.16 0.15 0.15 0.15 0.16 0.16 0.16
0.47 0.41 0.51 0.46 0.49 0.40 0.28 0.39 0.44 0.38 0.35 0.38 0.37 0.34 0.32 0.35 0.39 0.42 0.49 0.51 0.45 0.39 0.32 0.27 0.27 0.24 0.21 0.16 0.12 0.11 0.08 0.07 0.06 0.05 0.05 0.06 0.07 0.07
0.50 0.48 0.42 0.47 0.37 0.31 0.27 0.28 0.39 0.33 0.28 0.32 0.30 0.29 0.26 0.25 0.27 0.34 0.39 0.41 0.45 0.46 0.38 0.30 0.26 0.23 0.19 0.15 0.12 0.09 0.06 0.04 0.03 0.04 0.04 0.05 0.05 0.05
0.45 0.44 0.38 0.50 0.38 0.24 0.18 0.20 0.27 0.27 0.24 0.29 0.30 0.29 0.26 0.23 0.20 0.23 0.27 0.28 0.30 0.33 0.31 0.25 0.23 0.21 0.19 0.16 0.15 0.13 0.11 0.09 0.07 0.06 0.06 0.07 0.07 0.07
0.36 0.44 0.45 0.41 0.28 0.19 0.21 0.24 0.25 0.26 0.29 0.31 0.26 0.21 0.17 0.16 0.20 0.25 0.31 0.33 0.33 0.28 0.25 0.26 0.24 0.22 0.19 0.16 0.13 0.12 0.13 0.11 0.09 0.09 0.08 0.08 0.08 0.08
0.30 0.36 0.37 0.29 0.25 0.23 0.23 0.23 0.24 0.28 0.31 0.25 0.16 0.11 0.10 0.12 0.15 0.18 0.27 0.38 0.46 0.47 0.44 0.43 0.38 0.32 0.28 0.24 0.18 0.15 0.16 0.15 0.15 0.15 0.13 0.11 0.11 0.10
0.46 0.39 0.36 0.36 0.32 0.26 0.21 0.19 0.20 0.22 0.21 0.17 0.14 0.14 0.14 0.15 0.12 0.10 0.12 0.18 0.26 0.32 0.38 0.43 0.45 0.43 0.38 0.33 0.31 0.27 0.24 0.22 0.20 0.20 0.17 0.14 0.13 0.13
0.75 0.73 0.70 0.66 0.59 0.43 0.23 0.14 0.12 0.14 0.15 0.15 0.15 0.14 0.12 0.12 0.12 0.10 0.09 0.12 0.16 0.19 0.23 0.27 0.35 0.43 0.46 0.43 0.35 0.32 0.30 0.26 0.24 0.24 0.22 0.19 0.16 0.19
0.85 0.88 0.85 0.70 0.55 0.44 0.27 0.14 0.10 0.09 0.10 0.10 0.11 0.11 0.09 0.09 0.08 0.07 0.06 0.07 0.09 0.11 0.15 0.20 0.24 0.31 0.37 0.35 0.33 0.32 0.32 0.32 0.32 0.30 0.29 0.27 0.23 0.24
0.64 0.63 0.55 0.46 0.37 0.25 0.21 0.16 0.09 0.08 0.08 0.08 0.08 0.08 0.06 0.05 0.05 0.06 0.06 0.05 0.05 0.05 0.07 0.10 0.13 0.14 0.18 0.21 0.23 0.22 0.24 0.28 0.30 0.26 0.24 0.25 0.23 0.25
0.33 0.27 0.22 0.18 0.16 0.12 0.11 0.09 0.05 0.04 0.05 0.06 0.06 0.06 0.05 0.05 0.04 0.04 0.04 0.04 0.04 0.05 0.05 0.06 0.07 0.09 0.13 0.19 0.22 0.18 0.17 0.24 0.26 0.23 0.22 0.24 0.25 0.25
0.13 0.11 0.08 0.05 0.05 0.05 0.03 0.03 0.02 0.02 0.03 0.03 0.03 0.04 0.04 0.04 0.04 0.04 0.04 0.05 0.05 0.05 0.05 0.05 0.06 0.08 0.12 0.15 0.18 0.17 0.17 0.21 0.31 0.39 0.34 0.30 0.24 0.21
0.06 0.06 0.03 0.02 0.01 0.01 0.02 0.03 0.03 0.03 0.03 0.03 0.03 0.03 0.03 0.03 0.03 0.03 0.04 0.05 0.05 0.05 0.05 0.05 0.06 0.09 0.11 0.13 0.16 0.20 0.23 0.24 0.26 0.33 0.41 0.47 0.37 0.23

GEFSNE_prec_meanprecacc_054.txt.gz
Total_Precipitation_Accumulation
1.23 1.30 1.40 1.42 1.28 1.04 0.93 0.86 0.78 0.70 0.63 0.49 0.26 0.11 0.08 0.06 0.06 0.04 0.03 0.06 0.05 0.03 0.03 0.03 0.03 0.02 0.03 0.03 0.02 0.02 0.02 0.02 0.02 0.02 0.02 0.03 0.02 0.03
1.03 1.09 1.12 1.17 1.29 1.21 1.04 0.97 0.88 0.75 0.66 0.53 0.43 0.22 0.18 0.13 0.08 0.05 0.05 0.07 0.05 0.04 0.03 0.03 0.03 0.02 0.02 0.02 0.02 0.02 0.01 0.01 0.01 0.01 0.02 0.02 0.02 0.03
0.69 0.77 0.89 1.09 1.33 1.31 1.23 1.09 0.99 0.89 0.74 0.62 0.45 0.28 0.25 0.22 0.18 0.10 0.06 0.06 0.05 0.04 0.03 0.02 0.02 0.01 0.01 0.01 0.01 0.01 0.01 0.01 0.01 0.01 0.01 0.02 0.03 0.03
0.54 0.58 0.67 0.92 1.20 1.33 1.38 1.28 1.12 1.01 0.97 0.87 0.62 0.39 0.32 0.35 0.37 0.30 0.18 0.14 0.12 0.10 0.09 0.06 0.04 0.03 0.02 0.02 0.02 0.02 0.02 0.02 0.01 0.02 0.03 0.03 0.04 0.04
0.59 0.59 0.57 0.68 0.89 1.07 1.19 1.23 1.16 1.11 1.13 0.99 0.77 0.58 0.48 0.38 0.36 0.32 0.28 0.28 0.22 0.20 0.24 0.24 0.18 0.13 0.10 0.07 0.06 0.05 0.04 0.04 0.04 0.04 0.04 0.04 0.04 0.05
0.52 0.53 0.52 0.50 0.60 0.73 0.87 1.00 1.12 1.23 1.26 1.18 0.97 0.70 0.63 0.48 0.39 0.39 0.40 0.41 0.37 0.29 0.27 0.30 0.31 0.26 0.20 0.17 0.15 0.12 0.11 0.11 0.10 0.10 0.10 0.10 0.09 0.09
0.48 0.44 0.44 0.42 0.41 0.48 0.54 0.74 1.02 1.22 1.28 1.27 1.17 0.90 0.68 0.54 0.39 0.40 0.44 0.49 0.48 0.47 0.49 0.43 0.41 0.39 0.38 0.35 0.32 0.29 0.25 0.22 0.19 0.17 0.16 0.16 0.16 0.17
0.49 0.46 0.43 0.34 0.31 0.34 0.37 0.44 0.63 0.81 0.97 1.02 1.02 0.88 0.73 0.61 0.53 0.47 0.39 0.34 0.34 0.41 0.46 0.52 0.52 0.49 0.54 0.53 0.55 0.58 0.52 0.45 0.40 0.36 0.34 0.32 0.32 0.31
0.50 0.51 0.45 0.37 0.34 0.35 0.33 0.32 0.34 0.41 0.51 0.67 0.77 0.79 0.84 0.71 0.58 0.48 0.43 0.38 0.34 0.36 0.36 0.41 0.46 0.51 0.58 0.59 0.60 0.60 0.57 0.50 0.45 0.42 0.40 0.38 0.35 0.31
0.46 0.42 0.45 0.44 0.40 0.41 0.34 0.36 0.35 0.36 0.39 0.36 0.48 0.67 0.78 0.87 0.77 0.61 0.53 0.44 0.38 0.33 0.30 0.30 0.32 0.36 0.39 0.41 0.43 0.39 0.37 0.35 0.36 0.37 0.34 0.30 0.26 0.23
0.52 0.45 0.46 0.48 0.57 0.53 0.41 0.44 0.43 0.41 0.40 0.45 0.50 0.52 0.54 0.61 0.66 0.62 0.56 0.48 0.40 0.35 0.34 0.31 0.27 0.23 0.20 0.20 0.20 0.20 0.18 0.17 0.16 0.16 0.16 0.16 0.16 0.16
0.64 0.57 0.66 0.59 0.57 0.49 0.39 0.52 0.55 0.43 0.37 0.41 0.39 0.35 0.33 0.36 0.42 0.48 0.58 0.58 0.50 0.42 0.34 0.28 0.28 0.25 0.22 0.17 0.13 0.11 0.09 0.08 0.06 0.05 0.05 0.06 0.07 0.07
0.68 0.64 0.51 0.56 0.45 0.40 0.36 0.39 0.53 0.42 0.35 0.38 0.35 0.32 0.28 0.27 0.29 0.35 0.43 0.47 0.51 0.49 0.40 0.33 0.30 0.27 0.21 0.16 0.13 0.10 0.07 0.05 0.04 0.04 0.04 0.05 0.06 0.05
0.59 0.53 0.44 0.56 0.44 0.31 0.26 0.27 0.39 0.41 0.34 0.39 0.38 0.34 0.29 0.25 0.22 0.24 0.27 0.30 0.32 0.34 0.33 0.29 0.28 0.26 0.21 0.16 0.15 0.14 0.11 0.09 0.07 0.06 0.06 0.07 0.07 0.07
0.47 0.51 0.50 0.45 0.32 0.23 0.27 0.29 0.33 0.40 0.42 0.41 0.34 0.25 0.20 0.18 0.21 0.26 0.31 0.33 0.33 0.28 0.26 0.28 0.27 0.24 0.21 0.17 0.13 0.13 0.13 0.11 0.10 0.09 0.08 0.08 0.08 0.08
0.35 0.40 0.41 0.33 0.29 0.26 0.27 0.29 0.32 0.38 0.41 0.34 0.21 0.12 0.11 0.13 0.16 0.19 0.27 0.38 0.46 0.47 0.44 0.44 0.39 0.33 0.29 0.24 0.18 0.15 0.16 0.15 0.15 0.15 0.13 0.11 0.11 0.10
0.48 0.42 0.41 0.41 0.37 0.31 0.27 0.25 0.26 0.25 0.24 0.22 0.18 0.17 0.15 0.16 0.12 0.11 0.13 0.19 0.26 0.32 0.38 0.43 0.45 0.44 0.38 0.33 0.31 0.27 0.24 0.22 0.20 0.20 0.17 0.14 0.13 0.13
0.81 0.78 0.75 0.72 0.64 0.49 0.31 0.20 0.16 0.17 0.18 0.18 0.19 0.18 0.15 0.13 0.12 0.10 0.10 0.12 0.16 0.19 0.23 0.27 0.35 0.43 0.46 0.43 0.35 0.32 0.30 0.26 0.24 0.24 0.22 0.19 0.16 0.19
0.94 0.93 0.89 0.74 0.60 0.50 0.33 0.18 0.12 0.11 0.12 0.12 0.13 0.13 0.12 0.10 0.09 0.08 0.07 0.08 0.09 0.11 0.15 0.20 0.24 0.31 0.37 0.35 0.33 0.32 0.32 0.32 0.32 0.30 0.29 0.27 0.23 0.24
0.68 0.66 0.58 0.49 0.40 0.28 0.22 0.17 0.10 0.08 0.09 0.10 0.10 0.09 0.08 0.06 0.06 0.06 0.06 0.05 0.05 0.05 0.07 0.10 0.13 0.14 0.18 0.21 0.23 0.22 0.24 0.28 0.30 0.26 0.24 0.25 0.23 0.25
0.35 0.29 0.23 0.19 0.17 0.12 0.11 0.09 0.06 0.05 0.05 0.06 0.07 0.07 0.06 0.06 0.05 0.04 0.04 0.05 0.05 0.05 0.05 0.06 0.07 0.09 0.13 0.19 0.22 0.18 0.17 0.24 0.26 0.23 0.22 0.24 0.25 0.25
0.13 0.11 0.08 0.05 0.06 0.05 0.03 0.03 0.03 0.03 0.03 0.03 0.04 0.04 0.04 0.04 0.04 0.04 0.04 0.05 0.05 0.05 0.05 0.05 0.06 0.08 0.12 0.15 0.18 0.17 0.17 0.21 0.31 0.39 0.34 0.30 0.24 0.21
0.06 0.06 0.03 0.02 0.01 0.01 0.02 0.03 0.03 0.03 0.03 0.03 0.03 0.03 0.03 0.03 0.03 0.03 0.04 0.05 0.05 0.05 0.05 0.05 0.06 0.09 0.11 0.13 0.16 0.20 0.23 0.24 0.26 0.33 0.41 0.47 0.37 0.23

GEFSNE_prec_meanprecacc_060.txt.gz
Total_Precipitation_Accumulation
1.44 1.51 1.59 1.58 1.40 1.15 1.04 0.96 0.87 0.75 0.67 0.53 0.31 0.18 0.17 0.16 0.17 0.14 0.12 0.15 0.11 0.07 0.05 0.06 0.07 0.05 0.05 0.05 0.05 0.04 0.04 0.03 0.03 0.03 0.03 0.04 0.04 0.04
1.34 1.39 1.40 1.41 1.47 1.35 1.16 1.10 0.99 0.84 0.72 0.58 0.47 0.28 0.24 0.19 0.16 0.13 0.12 0.13 0.10 0.09 0.07 0.09 0.08 0.05 0.03 0.03 0.02 0.02 0.02 0.02 0.02 0.03 0.03 0.03 0.04 0.05
0.99 1.07 1.15 1.35 1.57 1.52 1.41 1.26 1.13 1.00 0.83 0.69 0.50 0.33 0.30 0.26 0.23 0.15 0.11 0.12 0.11 0.11 0.11 0.10 0.08 0.06 0.05 0.03 0.02 0.02 0.02 0.02 0.02 0.02 0.03 0.04 0.05 0.06
0.75 0.82 0.94 1.19 1.48 1.61 1.62 1.47 1.29 1.14 1.07 0.96 0.69 0.43 0.37 0.40 0.41 0.34 0.23 0.19 0.18 0.16 0.17 0.13 0.10 0.08 0.07 0.05 0.04 0.03 0.02 0.02 0.01 0.02 0.03 0.04 0.05 0.06
0.80 0.80 0.80 0.92 1.11 1.27 1.39 1.42 1.34 1.25 1.21 1.05 0.83 0.63 0.52 0.43 0.41 0.36 0.32 0.34 0.29 0.28 0.32 0.32 0.27 0.21 0.16 0.12 0.09 0.07 0.05 0.04 0.04 0.04 0.04 0.05 0.05 0.06
0.66 0.68 0.69 0.68 0.77 0.91 1.03 1.14 1.26 1.34 1.33 1.22 1.01 0.74 0.67 0.52 0.44 0.44 0.45 0.47 0.45 0.37 0.36 0.38 0.38 0.32 0.26 0.20 0.17 0.14 0.13 0.11 0.10 0.10 0.10 0.10 0.09 0.09
0.61 0.56 0.58 0.57 0.57 0.64 0.69 0.86 1.11 1.29 1.33 1.31 1.21 0.93 0.71 0.57 0.42 0.45 0.51 0.59 0.57 0.55 0.56 0.48 0.45 0.42 0.40 0.37 0.34 0.31 0.26 0.23 0.20 0.18 0.17 0.16 0.17 0.18
0.61 0.57 0.54 0.46 0.42 0.45 0.49 0.53 0.70 0.86 1.00 1.05 1.05 0.90 0.75 0.63 0.57 0.51 0.45 0.42 0.42 0.48 0.52 0.57 0.55 0.51 0.56 0.55 0.57 0.60 0.54 0.47 0.41 0.38 0.35 0.33 0.32 0.32
0.61 0.61 0.55 0.49 0.45 0.44 0.41 0.38 0.39 0.46 0.56 0.71 0.80 0.81 0.86 0.73 0.61 0.52 0.48 0.43 0.38 0.39 0.40 0.45 0.49 0.52 0.59 0.60 0.61 0.61 0.57 0.51 0.45 0.42 0.40 0.38 0.35 0.32
0.55 0.51 0.53 0.52 0.50 0.49 0.39 0.41 0.40 0.42 0.45 0.41 0.53 0.71 0.81 0.90 0.80 0.64 0.58 0.49 0.42 0.37 0.34 0.33 0.33 0.38 0.39 0.42 0.43 0.40 0.37 0.36 0.37 0.37 0.35 0.31 0.26 0.23
0.60 0.51 0.53 0.54 0.64 0.59 0.46 0.51 0.49 0.48 0.47 0.52 0.55 0.57 0.59 0.65 0.71 0.65 0.58 0.51 0.44 0.39 0.37 0.32 0.28 0.24 0.21 0.20 0.21 0.21 0.18 0.18 0.17 0.17 0.17 0.17 0.17 0.16
0.73 0.64 0.76 0.69 0.64 0.55 0.44 0.57 0.61 0.47 0.42 0.45 0.43 0.40 0.38 0.40 0.47 0.51 0.60 0.61 0.52 0.44 0.35 0.29 0.29 0.26 0.23 0.17 0.13 0.12 0.09 0.08 0.07 0.06 0.06 0.06 0.07 0.07
0.78 0.72 0.59 0.65 0.52 0.46 0.42 0.44 0.59 0.47 0.40 0.43 0.42 0.38 0.32 0.30 0.32 0.38 0.45 0.49 0.53 0.50 0.41 0.34 0.30 0.27 0.21 0.16 0.13 0.10 0.07 0.05 0.04 0.04 0.04 0.05 0.06 0.05
0.70 0.61 0.50 0.64 0.50 0.37 0.32 0.34 0.45 0.47 0.41 0.45 0.44 0.38 0.32 0.28 0.25 0.27 0.30 0.32 0.34 0.36 0.34 0.29 0.29 0.26 0.21 0.16 0.15 0.14 0.11 0.09 0.07 0.06 0.06 0.07 0.07 0.07
0.57 0.60 0.58 0.52 0.37 0.28 0.34 0.37 0.40 0.45 0.47 0.46 0.39 0.28 0.22 0.20 0.23 0.28 0.33 0.35 0.35 0.29 0.26 0.28 0.27 0.24 0.21 0.17 0.13 0.13 0.13 0.11 0.10 0.09 0.08 0.08 0.08 0.08
0.43 0.48 0.48 0.39 0.33 0.30 0.32 0.35 0.37 0.42 0.45 0.38 0.26 0.15 0.13 0.14 0.17 0.21 0.29 0.39 0.47 0.47 0.45 0.44 0.39 0.33 0.29 0.24 0.18 0.15 0.16 0.15 0.15 0.15 0.13 0.11 0.11 0.10
0.53 0.46 0.45 0.45 0.40 0.35 0.31 0.30 0.30 0.29 0.28 0.25 0.23 0.19 0.16 0.17 0.13 0.11 0.14 0.19 0.26 0.33 0.38 0.43 0.46 0.44 0.38 0.33 0.31 0.27 0.24 0.22 0.20 0.20 0.17 0.14 0.13 0.13
0.86 0.82 0.78 0.74 0.67 0.52 0.35 0.24 0.19 0.20 0.21 0.20 0.21 0.20 0.16 0.14 0.13 0.11 0.11 0.12 0.16 0.19 0.23 0.27 0.35 0.43 0.46 0.43 0.35 0.32 0.30 0.26 0.24 0.24 0.22 0.19 0.16 0.19
0.97 0.95 0.90 0.75 0.61 0.51 0.35 0.20 0.13 0.12 0.13 0.13 0.14 0.14 0.13 0.11 0.10 0.08 0.07 0.08 0.09 0.11 0.15 0.20 0.24 0.31 0.37 0.35 0.33 0.32 0.32 0.32 0.32 0.30 0.29 0.27 0.23 0.24
0.69 0.67 0.58 0.49 0.40 0.28 0.23 0.18 0.10 0.09 0.11 0.11 0.10 0.10 0.08 0.07 0.06 0.06 0.06 0.05 0.05 0.05 0.07 0.10 0.13 0.14 0.18 0.21 0.23 0.22 0.24 0.28 0.30 0.26 0.24 0.25 0.23 0.25
0.35 0.29 0.23 0.19 0.17 0.12 0.11 0.10 0.06 0.05 0.06 0.07 0.07 0.07 0.07 0.06 0.05 0.04 0.04 0.05 0.05 0.05 0.05 0.06 0.07 0.09 0.13 0.19 0.22 0.18 0.17 0.24 0.26 0.23 0.22 0.24 0.25 0.25
0.13 0.11 0.08 0.05 0.06 0.05 0.03 0.03 0.03 0.03 0.03 0.03 0.04 0.04 0.04 0.04 0.04 0.04 0.04 0.05 0.05 0.05 0.05 0.05 0.06 0.08 0.12 0.15 0.18 0.17 0.17 0.21 0.31 0.39 0.34 0.30 0.24 0.21
0.06 0.06 0.03 0.02 0.01 0.01 0.02 0.03 0.03 0.03 0.03 0.03 0.03 0.03 0.03 0.03 0.03 0.03 0.04 0.05 0.05 0.05 0.05 0.05 0.06 0.09 0.11 0.13 0.16 0.20 0.23 0.24 0.26 0.33 0.41 0.47 0.37 0.23

GEFSNE_prec_meanprecacc_066.txt.gz
Total_Precipitation_Accumulation
1.57 1.67 1.76 1.77 1.60 1.32 1.20 1.12 1.00 0.84 0.72 0.56 0.34 0.22 0.23 0.23 0.25 0.23 0.23 0.25 0.19 0.13 0.11 0.13 0.13 0.10 0.09 0.10 0.09 0.08 0.08 0.06 0.05 0.05 0.05 0.06 0.05 0.05
1.45 1.53 1.54 1.58 1.68 1.55 1.34 1.27 1.15 0.97 0.82 0.66 0.53 0.34 0.31 0.26 0.24 0.19 0.21 0.25 0.19 0.16 0.13 0.14 0.13 0.09 0.07 0.07 0.05 0.04 0.03 0.03 0.03 0.04 0.04 0.04 0.05 0.06
1.10 1.19 1.30 1.53 1.78 1.75 1.62 1.45 1.30 1.15 0.94 0.78 0.58 0.40 0.37 0.32 0.29 0.20 0.17 0.19 0.19 0.18 0.16 0.14 0.13 0.12 0.10 0.07 0.04 0.03 0.03 0.03 0.02 0.02 0.03 0.05 0.07 0.08
0.87 0.95 1.06 1.33 1.66 1.83 1.85 1.70 1.50 1.33 1.22 1.09 0.80 0.52 0.45 0.47 0.48 0.41 0.29 0.25 0.25 0.24 0.24 0.20 0.16 0.14 0.12 0.09 0.07 0.05 0.04 0.03 0.02 0.02 0.03 0.05 0.07 0.08
0.91 0.92 0.90 1.04 1.25 1.46 1.60 1.65 1.60 1.52 1.44 1.24 1.02 0.79 0.65 0.55 0.52 0.45 0.40 0.41 0.36 0.35 0.39 0.39 0.33 0.27 0.23 0.18 0.15 0.11 0.08 0.06 0.05 0.04 0.04 0.05 0.06 0.07
0.75 0.79 0.81 0.78 0.88 1.04 1.20 1.33 1.47 1.59 1.59 1.44 1.23 0.95 0.85 0.67 0.55 0.53 0.53 0.54 0.51 0.43 0.42 0.45 0.46 0.41 0.35 0.29 0.24 0.19 0.16 0.14 0.13 0.12 0.11 0.11 0.10 0.10
0.68 0.66 0.70 0.68 0.67 0.74 0.81 1.01 1.28 1.48 1.52 1.50 1.39 1.11 0.87 0.71 0.53 0.52 0.58 0.66 0.63 0.59 0.60 0.53 0.50 0.48 0.46 0.43 0.39 0.35 0.29 0.25 0.22 0.20 0.18 0.17 0.17 0.18
0.68 0.66 0.65 0.57 0.55 0.57 0.62 0.67 0.86 1.04 1.17 1.20 1.19 1.04 0.87 0.73 0.65 0.58 0.51 0.47 0.49 0.54 0.56 0.62 0.59 0.56 0.61 0.59 0.60 0.63 0.56 0.48 0.43 0.39 0.37 0.34 0.33 0.33
0.69 0.69 0.66 0.61 0.59 0.58 0.56 0.54 0.55 0.63 0.73 0.87 0.94 0.92 0.95 0.81 0.69 0.58 0.53 0.48 0.42 0.44 0.45 0.49 0.52 0.56 0.62 0.64 0.64 0.63 0.59 0.52 0.46 0.43 0.42 0.39 0.36 0.32
0.67 0.61 0.64 0.65 0.66 0.65 0.55 0.58 0.53 0.54 0.57 0.54 0.65 0.83 0.91 0.98 0.87 0.71 0.65 0.56 0.49 0.43 0.38 0.37 0.36 0.40 0.42 0.44 0.46 0.42 0.38 0.36 0.37 0.37 0.35 0.31 0.27 0.24
0.70 0.66 0.68 0.69 0.81 0.76 0.60 0.65 0.61 0.59 0.56 0.62 0.67 0.70 0.71 0.74 0.78 0.72 0.64 0.57 0.50 0.45 0.40 0.36 0.31 0.27 0.24 0.23 0.23 0.23 0.20 0.18 0.17 0.17 0.18 0.18 0.18 0.18
0.82 0.78 0.94 0.86 0.81 0.71 0.59 0.68 0.70 0.56 0.50 0.54 0.52 0.49 0.47 0.48 0.55 0.58 0.66 0.66 0.57 0.49 0.38 0.32 0.31 0.28 0.25 0.20 0.15 0.13 0.10 0.09 0.07 0.06 0.07 0.08 0.09 0.08
0.90 0.83 0.73 0.83 0.70 0.61 0.56 0.56 0.67 0.53 0.47 0.51 0.48 0.43 0.38 0.36 0.38 0.44 0.50 0.55 0.57 0.53 0.43 0.36 0.32 0.28 0.22 0.18 0.14 0.11 0.07 0.05 0.04 0.04 0.05 0.06 0.06 0.05
0.84 0.73 0.62 0.80 0.67 0.51 0.44 0.44 0.54 0.55 0.47 0.51 0.50 0.44 0.38 0.34 0.30 0.32 0.35 0.36 0.37 0.39 0.36 0.31 0.30 0.27 0.21 0.17 0.16 0.14 0.12 0.09 0.07 0.06 0.06 0.07 0.07 0.07
0.68 0.71 0.70 0.65 0.51 0.39 0.44 0.46 0.47 0.50 0.52 0.51 0.44 0.33 0.27 0.26 0.27 0.33 0.39 0.40 0.38 0.33 0.29 0.30 0.29 0.26 0.22 0.17 0.14 0.13 0.13 0.11 0.10 0.09 0.08 0.08 0.08 0.08
0.52 0.56 0.56 0.47 0.41 0.38 0.40 0.43 0.44 0.46 0.49 0.43 0.32 0.21 0.17 0.18 0.21 0.25 0.34 0.43 0.50 0.49 0.47 0.46 0.41 0.34 0.30 0.25 0.18 0.15 0.16 0.15 0.15 0.15 0.13 0.11 0.11 0.10
0.59 0.51 0.49 0.49 0.44 0.38 0.37 0.36 0.34 0.33 0.32 0.31 0.28 0.24 0.21 0.20 0.16 0.14 0.18 0.22 0.28 0.34 0.39 0.43 0.46 0.45 0.39 0.34 0.31 0.27 0.24 0.22 0.20 0.20 0.17 0.14 0.13 0.13
0.89 0.85 0.80 0.76 0.68 0.53 0.37 0.26 0.22 0.24 0.25 0.25 0.25 0.24 0.20 0.17 0.15 0.13 0.12 0.14 0.17 0.20 0.23 0.27 0.35 0.43 0.46 0.43 0.35 0.32 0.30 0.26 0.24 0.24 0.22 0.19 0.16 0.19
0.98 0.96 0.91 0.76 0.62 0.52 0.37 0.21 0.14 0.15 0.17 0.16 0.16 0.16 0.14 0.12 0.10 0.09 0.07 0.08 0.09 0.11 0.15 0.20 0.24 0.31 0.37 0.35 0.33 0.32 0.32 0.32 0.32 0.30 0.29 0.27 0.23 0.24
0.69 0.67 0.59 0.49 0.41 0.29 0.24 0.18 0.11 0.10 0.12 0.12 0.11 0.10 0.09 0.07 0.06 0.07 0.06 0.05 0.05 0.05 0.07 0.10 0.13 0.14 0.18 0.21 0.23 0.22 0.24 0.28 0.30 0.26 0.24 0.25 0.23 0.25
0.35 0.29 0.23 0.19 0.17 0.12 0.11 0.10 0.06 0.05 0.06 0.07 0.08 0.08 0.07 0.06 0.05 0.04 0.04 0.05 0.05 0.05 0.05 0.06 0.07 0.09 0.13 0.19 0.22 0.18 0.17 0.24 0.26 0.23 0.22 0.24 0.25 0.25
0.13 0.11 0.08 0.05 0.06 0.05 0.03 0.03 0.03 0.03 0.03 0.03 0.04 0.04 0.04 0.04 0.04 0.04 0.04 0.05 0.05 0.05 0.05 0.05 0.06 0.08 0.12 0.15 0.18 0.17 0.17 0.21 0.31 0.39 0.34 0.30 0.24 0.21
0.06 0.06 0.03 0.02 0.01 0.01 0.02 0.03 0.03 0.03 0.03 0.03 0.03 0.04 0.03 0.03 0.03 0.03 0.04 0.05 0.05 0.05 0.05 0.05 0.06 0.09 0.11 0.13 0.16 0.20 0.23 0.24 0.26 0.33 0.41 0.47 0.37 0.23

GEFSNE_prec_meanprecacc_072.txt.gz
Total_Precipitation_Accumulation
1.65 1.77 1.90 1.96 1.82 1.55 1.40 1.28 1.15 0.98 0.84 0.66 0.42 0.26 0.28 0.28 0.33 0.27 0.27 0.30 0.23 0.15 0.13 0.15 0.14 0.11 0.11 0.11 0.11 0.10 0.10 0.08 0.07 0.06 0.06 0.07 0.06 0.06
1.52 1.61 1.64 1.70 1.83 1.74 1.53 1.44 1.29 1.10 0.95 0.76 0.62 0.40 0.37 0.32 0.32 0.25 0.28 0.34 0.25 0.20 0.15 0.15 0.15 0.11 0.09 0.07 0.06 0.04 0.04 0.03 0.04 0.04 0.04 0.05 0.06 0.07
1.19 1.28 1.39 1.64 1.92 1.90 1.81 1.66 1.49 1.29 1.06 0.89 0.66 0.46 0.42 0.39 0.35 0.26 0.24 0.26 0.24 0.23 0.20 0.18 0.16 0.14 0.11 0.08 0.05 0.04 0.03 0.03 0.02 0.02 0.04 0.06 0.07 0.09
0.95 1.04 1.15 1.44 1.78 1.96 2.02 1.91 1.74 1.54 1.37 1.22 0.90 0.60 0.51 0.54 0.55 0.48 0.35 0.31 0.31 0.32 0.31 0.26 0.21 0.18 0.14 0.10 0.07 0.06 0.04 0.03 0.02 0.03 0.04 0.06 0.07 0.09
0.98 1.01 0.99 1.14 1.35 1.56 1.73 1.81 1.80 1.75 1.66 1.42 1.18 0.92 0.76 0.65 0.62 0.55 0.49 0.49 0.44 0.44 0.48 0.47 0.41 0.34 0.27 0.21 0.16 0.12 0.09 0.07 0.06 0.05 0.05 0.06 0.07 0.08
0.80 0.85 0.89 0.89 1.01 1.15 1.29 1.44 1.63 1.80 1.84 1.70 1.45 1.18 1.04 0.83 0.71 0.70 0.71 0.70 0.66 0.54 0.52 0.54 0.55 0.49 0.41 0.33 0.27 0.22 0.19 0.17 0.15 0.14 0.13 0.12 0.11 0.11
0.72 0.71 0.76 0.76 0.77 0.87 0.92 1.10 1.41 1.64 1.73 1.76 1.66 1.38 1.16 0.95 0.71 0.67 0.73 0.84 0.84 0.78 0.75 0.64 0.59 0.55 0.53 0.48 0.44 0.39 0.33 0.29 0.25 0.22 0.21 0.20 0.19 0.20
0.73 0.71 0.71 0.65 0.63 0.65 0.72 0.79 0.99 1.19 1.34 1.40 1.41 1.29 1.15 1.00 0.88 0.79 0.69 0.64 0.67 0.70 0.68 0.73 0.68 0.63 0.67 0.64 0.66 0.68 0.60 0.52 0.45 0.41 0.38 0.36 0.35 0.34
0.73 0.74 0.72 0.67 0.68 0.68 0.66 0.65 0.68 0.77 0.90 1.06 1.13 1.10 1.15 1.05 0.91 0.80 0.73 0.64 0.56 0.57 0.57 0.62 0.63 0.66 0.70 0.71 0.71 0.68 0.63 0.56 0.49 0.46 0.44 0.40 0.37 0.33
0.72 0.65 0.70 0.72 0.76 0.79 0.69 0.71 0.67 0.67 0.71 0.71 0.84 1.02 1.10 1.19 1.10 0.93 0.84 0.73 0.63 0.56 0.49 0.47 0.45 0.48 0.50 0.52 0.54 0.48 0.42 0.39 0.40 0.40 0.37 0.33 0.28 0.25
0.73 0.71 0.76 0.78 0.90 0.92 0.81 0.84 0.79 0.75 0.72 0.79 0.86 0.92 0.95 0.99 1.03 0.94 0.84 0.73 0.64 0.57 0.48 0.43 0.38 0.32 0.29 0.28 0.29 0.28 0.23 0.20 0.19 0.19 0.19 0.19 0.19 0.18
0.87 0.84 1.02 0.98 0.93 0.85 0.80 0.90 0.89 0.73 0.64 0.68 0.70 0.72 0.71 0.73 0.79 0.78 0.80 0.79 0.68 0.59 0.46 0.37 0.37 0.33 0.31 0.25 0.19 0.16 0.12 0.11 0.09 0.08 0.08 0.08 0.10 0.08
0.97 0.91 0.85 0.98 0.89 0.80 0.77 0.77 0.87 0.72 0.65 0.66 0.63 0.60 0.59 0.59 0.60 0.62 0.64 0.67 0.66 0.60 0.48 0.39 0.36 0.32 0.26 0.21 0.19 0.15 0.10 0.07 0.06 0.06 0.07 0.07 0.08 0.07
0.94 0.84 0.75 0.97 0.90 0.76 0.67 0.66 0.74 0.74 0.69 0.71 0.66 0.58 0.54 0.52 0.48 0.47 0.47 0.48 0.49 0.48 0.42 0.36 0.34 0.31 0.24 0.20 0.19 0.18 0.15 0.12 0.09 0.08 0.07 0.08 0.08 0.08
0.81 0.82 0.84 0.86 0.74 0.64 0.70 0.68 0.66 0.68 0.71 0.72 0.61 0.46 0.41 0.39 0.40 0.44 0.48 0.49 0.47 0.40 0.36 0.34 0.33 0.30 0.26 0.20 0.15 0.14 0.15 0.13 0.11 0.10 0.09 0.08 0.08 0.08
0.61 0.65 0.69 0.66 0.63 0.60 0.61 0.65 0.64 0.64 0.67 0.60 0.46 0.34 0.32 0.31 0.31 0.34 0.41 0.50 0.57 0.55 0.51 0.51 0.46 0.38 0.34 0.29 0.21 0.16 0.16 0.16 0.15 0.15 0.13 0.11 0.11 0.10
0.66 0.58 0.59 0.60 0.59 0.54 0.51 0.52 0.52 0.48 0.47 0.44 0.40 0.37 0.34 0.31 0.26 0.22 0.25 0.27 0.32 0.37 0.43 0.49 0.52 0.51 0.45 0.39 0.34 0.28 0.24 0.22 0.20 0.20 0.17 0.14 0.13 0.13
0.93 0.90 0.88 0.84 0.75 0.62 0.47 0.36 0.32 0.34 0.35 0.35 0.34 0.33 0.29 0.27 0.24 0.19 0.18 0.19 0.20 0.22 0.26 0.31 0.39 0.48 0.52 0.48 0.38 0.33 0.31 0.27 0.24 0.24 0.22 0.19 0.16 0.19
1.01 1.00 0.95 0.80 0.65 0.57 0.43 0.27 0.19 0.20 0.24 0.21 0.21 0.22 0.21 0.20 0.20 0.16 0.13 0.12 0.12 0.13 0.17 0.22 0.28 0.34 0.40 0.37 0.34 0.32 0.32 0.32 0.32 0.30 0.29 0.27 0.23 0.24
0.71 0.68 0.60 0.51 0.42 0.31 0.26 0.21 0.13 0.13 0.17 0.16 0.14 0.14 0.12 0.12 0.14 0.14 0.11 0.08 0.07 0.07 0.09 0.12 0.14 0.16 0.19 0.22 0.23 0.22 0.25 0.28 0.30 0.26 0.24 0.25 0.23 0.25
0.35 0.29 0.24 0.20 0.17 0.13 0.12 0.11 0.07 0.07 0.09 0.11 0.11 0.10 0.08 0.08 0.09 0.09 0.09 0.08 0.07 0.06 0.06 0.07 0.07 0.10 0.13 0.20 0.23 0.18 0.17 0.24 0.26 0.23 0.22 0.24 0.25 0.25
0.14 0.11 0.08 0.06 0.06 0.05 0.04 0.04 0.03 0.04 0.04 0.06 0.06 0.06 0.06 0.05 0.05 0.05 0.06 0.06 0.06 0.06 0.05 0.05 0.06 0.08 0.12 0.15 0.19 0.17 0.17 0.21 0.31 0.39 0.34 0.30 0.24 0.21
0.07 0.06 0.04 0.02 0.01 0.01 0.02 0.04 0.04 0.04 0.04 0.05 0.05 0.04 0.04 0.04 0.04 0.04 0.05 0.05 0.05 0.05 0.05 0.05 0.06 0.09 0.11 0.13 0.16 0.20 0.23 0.24 0.26 0.33 0.41 0.47 0.37 0.23

GEFSNE_prec_meanprecacc_078.txt.gz
Total_Precipitation_Accumulation
1.76 1.90 2.04 2.11 1.98 1.71 1.56 1.46 1.33 1.15 1.00 0.83 0.59 0.40 0.44 0.44 0.53 0.40 0.33 0.35 0.25 0.16 0.13 0.15 0.14 0.12 0.12 0.12 0.13 0.12 0.12 0.10 0.08 0.06 0.07 0.07 0.06 0.07
1.62 1.72 1.76 1.83 1.99 1.91 1.70 1.59 1.44 1.26 1.11 0.93 0.79 0.57 0.57 0.51 0.56 0.37 0.38 0.46 0.31 0.22 0.15 0.16 0.15 0.11 0.09 0.08 0.06 0.05 0.04 0.04 0.04 0.04 0.05 0.05 0.06 0.08
1.27 1.36 1.49 1.75 2.05 2.05 1.98 1.82 1.62 1.43 1.18 1.03 0.82 0.61 0.65 0.65 0.60 0.46 0.42 0.39 0.31 0.29 0.23 0.18 0.16 0.14 0.11 0.08 0.05 0.04 0.03 0.03 0.03 0.02 0.04 0.06 0.08 0.09
1.03 1.13 1.25 1.55 1.92 2.11 2.17 2.05 1.87 1.67 1.49 1.34 1.03 0.73 0.66 0.74 0.79 0.73 0.57 0.49 0.43 0.42 0.37 0.29 0.23 0.19 0.15 0.11 0.08 0.06 0.04 0.03 0.02 0.03 0.04 0.06 0.07 0.09
1.05 1.08 1.09 1.26 1.47 1.71 1.89 1.96 1.92 1.88 1.80 1.56 1.30 1.03 0.87 0.80 0.84 0.79 0.72 0.70 0.61 0.58 0.59 0.54 0.46 0.38 0.30 0.23 0.18 0.13 0.09 0.07 0.06 0.05 0.06 0.07 0.07 0.09
0.85 0.92 0.98 0.99 1.12 1.30 1.45 1.61 1.78 1.95 1.98 1.83 1.58 1.31 1.16 0.95 0.89 0.88 0.90 0.87 0.80 0.66 0.63 0.62 0.64 0.58 0.48 0.39 0.32 0.25 0.21 0.19 0.16 0.14 0.13 0.12 0.11 0.12
0.78 0.77 0.83 0.84 0.86 1.00 1.07 1.28 1.57 1.80 1.87 1.90 1.79 1.52 1.29 1.09 0.84 0.80 0.88 1.01 1.00 0.91 0.88 0.76 0.70 0.65 0.62 0.58 0.53 0.46 0.38 0.32 0.28 0.25 0.23 0.22 0.21 0.21
0.77 0.77 0.77 0.70 0.68 0.70 0.80 0.93 1.18 1.36 1.47 1.51 1.52 1.40 1.24 1.10 1.00 0.91 0.84 0.81 0.85 0.84 0.81 0.86 0.80 0.76 0.77 0.73 0.76 0.77 0.68 0.58 0.50 0.45 0.42 0.39 0.38 0.36
0.78 0.81 0.77 0.71 0.74 0.73 0.71 0.70 0.76 0.90 1.08 1.23 1.26 1.20 1.25 1.14 1.02 0.93 0.88 0.80 0.72 0.74 0.73 0.78 0.79 0.80 0.81 0.81 0.83 0.78 0.71 0.64 0.57 0.53 0.49 0.45 0.42 0.38
0.77 0.72 0.76 0.78 0.81 0.85 0.76 0.78 0.73 0.72 0.79 0.83 0.97 1.16 1.26 1.36 1.27 1.12 1.07 0.99 0.89 0.82 0.72 0.70 0.66 0.65 0.63 0.63 0.65 0.57 0.50 0.47 0.47 0.46 0.43 0.38 0.33 0.30
0.80 0.77 0.82 0.84 0.97 0.98 0.87 0.91 0.88 0.83 0.80 0.90 0.98 1.06 1.11 1.19 1.25 1.18 1.10 1.02 0.95 0.88 0.74 0.64 0.58 0.50 0.45 0.41 0.39 0.37 0.31 0.28 0.25 0.25 0.25 0.24 0.23 0.22
0.94 0.91 1.07 1.01 0.96 0.89 0.86 0.99 0.98 0.81 0.71 0.75 0.80 0.84 0.85 0.91 0.99 0.97 0.99 0.99 0.90 0.82 0.66 0.54 0.54 0.48 0.44 0.37 0.29 0.26 0.22 0.19 0.15 0.12 0.12 0.13 0.15 0.13
1.02 0.97 0.89 0.99 0.91 0.82 0.83 0.88 1.01 0.86 0.76 0.77 0.76 0.75 0.75 0.76 0.78 0.82 0.84 0.85 0.82 0.74 0.59 0.51 0.48 0.42 0.34 0.31 0.28 0.23 0.18 0.14 0.12 0.11 0.10 0.11 0.11 0.10
0.99 0.89 0.79 0.99 0.92 0.81 0.75 0.76 0.87 0.90 0.83 0.86 0.82 0.75 0.70 0.67 0.63 0.65 0.69 0.70 0.68 0.65 0.57 0.47 0.44 0.38 0.30 0.25 0.25 0.25 0.22 0.19 0.15 0.12 0.11 0.12 0.11 0.11
0.85 0.86 0.86 0.89 0.78 0.71 0.80 0.80 0.79 0.83 0.89 0.90 0.77 0.61 0.55 0.53 0.54 0.61 0.69 0.71 0.69 0.60 0.53 0.50 0.45 0.41 0.34 0.26 0.21 0.20 0.20 0.19 0.17 0.15 0.13 0.12 0.11 0.11
0.66 0.70 0.73 0.69 0.67 0.67 0.71 0.79 0.81 0.83 0.85 0.79 0.67 0.52 0.47 0.47 0.49 0.52 0.60 0.69 0.77 0.74 0.68 0.65 0.58 0.49 0.44 0.37 0.28 0.23 0.22 0.20 0.20 0.20 0.17 0.15 0.13 0.12
0.71 0.65 0.67 0.66 0.65 0.62 0.63 0.65 0.67 0.64 0.63 0.62 0.58 0.55 0.53 0.51 0.46 0.44 0.46 0.46 0.49 0.52 0.57 0.62 0.66 0.64 0.56 0.48 0.43 0.35 0.30 0.27 0.25 0.24 0.21 0.18 0.15 0.15
0.95 0.97 0.98 0.91 0.81 0.70 0.58 0.49 0.44 0.46 0.49 0.51 0.52 0.49 0.48 0.47 0.45 0.40 0.41 0.41 0.40 0.37 0.37 0.41 0.50 0.60 0.65 0.60 0.48 0.42 0.38 0.33 0.29 0.28 0.26 0.22 0.19 0.20
1.02 1.03 1.01 0.86 0.71 0.63 0.50 0.35 0.29 0.30 0.35 0.35 0.38 0.39 0.37 0.38 0.39 0.37 0.32 0.32 0.32 0.31 0.31 0.32 0.35 0.42 0.49 0.47 0.43 0.39 0.38 0.38 0.37 0.35 0.32 0.29 0.25 0.25
0.72 0.71 0.63 0.54 0.46 0.36 0.32 0.27 0.21 0.22 0.26 0.26 0.27 0.28 0.26 0.27 0.29 0.32 0.29 0.26 0.23 0.21 0.20 0.20 0.21 0.22 0.25 0.28 0.29 0.27 0.29 0.33 0.34 0.30 0.27 0.27 0.24 0.26
0.38 0.32 0.26 0.21 0.19 0.16 0.17 0.17 0.14 0.14 0.16 0.18 0.19 0.20 0.19 0.19 0.22 0.24 0.25 0.24 0.21 0.16 0.14 0.12 0.12 0.14 0.18 0.24 0.27 0.22 0.21 0.27 0.29 0.25 0.23 0.25 0.26 0.25
0.15 0.13 0.11 0.08 0.08 0.07 0.07 0.08 0.08 0.09 0.10 0.11 0.12 0.14 0.15 0.14 0.15 0.16 0.18 0.20 0.18 0.15 0.11 0.10 0.10 0.12 0.14 0.18 0.21 0.20 0.19 0.23 0.32 0.40 0.35 0.30 0.25 0.21
0.08 0.08 0.06 0.05 0.03 0.03 0.05 0.07 0.08 0.09 0.09 0.10 0.10 0.10 0.11 0.12 0.11 0.11 0.13 0.14 0.14 0.14 0.11 0.09 0.10 0.12 0.14 0.15 0.18 0.22 0.24 0.24 0.27 0.34 0.41 0.47 0.37 0.23

GEFSNE_prec_meanprecacc_084.txt.gz
Total_Precipitation_Accumulation
1.79 1.93 2.08 2.17 2.05 1.77 1.63 1.52 1.39 1.19 1.03 0.90 0.73 0.57 0.63 0.70 0.82 0.66 0.51 0.51 0.36 0.22 0.16 0.17 0.16 0.13 0.14 0.14 0.15 0.16 0.16 0.13 0.10 0.08 0.08 0.08 0.07 0.07
1.64 1.74 1.78 1.86 2.05 1.98 1.76 1.66 1.50 1.30 1.13 0.96 0.87 0.72 0.77 0.77 0.87 0.68 0.64 0.69 0.50 0.34 0.22 0.19 0.17 0.13 0.10 0.09 0.07 0.06 0.06 0.06 0.06 0.06 0.06 0.07 0.07 0.08
1.31 1.39 1.51 1.78 2.09 2.10 2.04 1.88 1.69 1.49 1.21 1.06 0.85 0.71 0.87 0.92 0.89 0.78 0.72 0.65 0.51 0.44 0.34 0.25 0.20 0.16 0.13 0.09 0.06 0.04 0.04 0.04 0.03 0.03 0.05 0.07 0.09 0.10
1.06 1.15 1.28 1.58 1.95 2.16 2.23 2.11 1.92 1.73 1.54 1.37 1.06 0.77 0.80 1.03 1.14 1.06 0.86 0.72 0.64 0.61 0.53 0.40 0.30 0.22 0.17 0.12 0.09 0.07 0.05 0.04 0.03 0.03 0.05 0.07 0.08 0.10
1.07 1.10 1.12 1.29 1.50 1.74 1.92 2.01 1.98 1.94 1.85 1.60 1.33 1.07 0.92 0.96 1.14 1.13 1.01 0.95 0.83 0.80 0.81 0.71 0.58 0.45 0.34 0.25 0.20 0.14 0.10 0.08 0.06 0.06 0.06 0.07 0.08 0.10
0.87 0.94 1.00 1.02 1.15 1.33 1.47 1.65 1.84 2.02 2.06 1.89 1.63 1.35 1.21 1.02 1.03 1.11 1.16 1.10 1.02 0.88 0.84 0.81 0.80 0.70 0.56 0.44 0.35 0.27 0.23 0.20 0.17 0.15 0.14 0.13 0.12 0.12
0.80 0.79 0.85 0.86 0.89 1.03 1.09 1.31 1.63 1.87 1.95 1.96 1.84 1.56 1.33 1.13 0.90 0.91 1.07 1.23 1.23 1.13 1.11 0.96 0.87 0.78 0.72 0.65 0.58 0.49 0.41 0.36 0.30 0.27 0.25 0.23 0.22 0.22
0.79 0.78 0.79 0.72 0.70 0.73 0.83 0.97 1.24 1.43 1.55 1.58 1.57 1.43 1.27 1.13 1.03 0.99 0.98 0.99 1.06 1.02 0.99 1.05 0.98 0.89 0.88 0.81 0.84 0.84 0.72 0.62 0.55 0.49 0.45 0.41 0.39 0.38
0.80 0.82 0.79 0.72 0.75 0.75 0.73 0.72 0.80 0.97 1.15 1.32 1.34 1.24 1.29 1.19 1.08 1.00 0.98 0.92 0.84 0.89 0.91 0.96 0.96 0.93 0.92 0.92 0.95 0.89 0.82 0.72 0.64 0.59 0.55 0.50 0.45 0.41
0.79 0.74 0.78 0.80 0.83 0.86 0.77 0.79 0.74 0.76 0.83 0.87 1.01 1.21 1.32 1.42 1.35 1.22 1.19 1.11 1.02 0.97 0.90 0.90 0.86 0.82 0.78 0.77 0.80 0.71 0.64 0.59 0.57 0.55 0.51 0.45 0.40 0.37
0.81 0.79 0.85 0.86 0.99 0.99 0.88 0.92 0.88 0.84 0.81 0.92 1.02 1.11 1.18 1.26 1.33 1.28 1.22 1.15 1.07 0.98 0.86 0.79 0.75 0.72 0.69 0.62 0.60 0.59 0.50 0.44 0.39 0.36 0.35 0.33 0.31 0.29
0.95 0.93 1.09 1.02 0.97 0.90 0.86 1.00 0.98 0.82 0.72 0.76 0.81 0.88 0.90 0.97 1.07 1.05 1.08 1.10 1.03 0.94 0.75 0.65 0.68 0.66 0.67 0.59 0.51 0.46 0.41 0.39 0.35 0.30 0.26 0.24 0.23 0.19
1.02 0.98 0.91 1.00 0.92 0.83 0.83 0.89 1.02 0.88 0.78 0.79 0.77 0.77 0.79 0.80 0.84 0.88 0.92 0.93 0.93 0.86 0.70 0.63 0.62 0.58 0.50 0.46 0.45 0.42 0.35 0.30 0.28 0.27 0.26 0.23 0.20 0.16
0.99 0.89 0.80 1.00 0.93 0.82 0.75 0.77 0.89 0.93 0.88 0.88 0.85 0.77 0.73 0.70 0.68 0.71 0.76 0.79 0.79 0.77 0.70 0.61 0.58 0.53 0.45 0.40 0.39 0.39 0.37 0.33 0.28 0.25 0.23 0.26 0.23 0.21
0.86 0.87 0.87 0.89 0.79 0.71 0.81 0.82 0.82 0.85 0.92 0.93 0.80 0.64 0.58 0.57 0.61 0.70 0.79 0.83 0.84 0.76 0.70 0.65 0.59 0.57 0.50 0.41 0.35 0.34 0.35 0.33 0.29 0.25 0.23 0.23 0.23 0.22
0.66 0.70 0.73 0.69 0.67 0.67 0.72 0.81 0.83 0.86 0.87 0.82 0.70 0.55 0.52 0.53 0.56 0.59 0.68 0.78 0.90 0.89 0.84 0.83 0.76 0.67 0.62 0.53 0.42 0.37 0.35 0.33 0.32 0.30 0.27 0.23 0.21 0.20
0.71 0.65 0.68 0.67 0.65 0.63 0.65 0.67 0.69 0.67 0.67 0.65 0.62 0.61 0.60 0.57 0.53 0.51 0.54 0.54 0.57 0.61 0.68 0.75 0.82 0.82 0.74 0.66 0.58 0.48 0.42 0.38 0.34 0.34 0.30 0.25 0.22 0.20
0.95 0.98 0.98 0.92 0.82 0.71 0.60 0.52 0.48 0.49 0.52 0.56 0.57 0.55 0.53 0.54 0.53 0.50 0.52 0.52 0.49 0.45 0.46 0.51 0.62 0.77 0.84 0.78 0.64 0.54 0.49 0.43 0.39 0.37 0.34 0.29 0.25 0.25
1.02 1.03 1.01 0.87 0.72 0.64 0.52 0.38 0.32 0.33 0.39 0.40 0.43 0.46 0.44 0.43 0.45 0.45 0.43 0.47 0.48 0.43 0.42 0.43 0.47 0.54 0.61 0.58 0.54 0.48 0.46 0.46 0.46 0.44 0.40 0.36 0.30 0.30
0.72 0.71 0.64 0.55 0.47 0.38 0.34 0.29 0.22 0.24 0.30 0.30 0.33 0.34 0.33 0.34 0.36 0.40 0.38 0.37 0.40 0.37 0.35 0.35 0.34 0.33 0.34 0.37 0.38 0.36 0.37 0.40 0.42 0.38 0.34 0.34 0.32 0.33
0.39 0.32 0.26 0.22 0.20 0.17 0.17 0.17 0.16 0.17 0.20 0.23 0.24 0.26 0.26 0.27 0.30 0.32 0.33 0.33 0.32 0.32 0.31 0.28 0.26 0.30 0.33 0.37 0.38 0.31 0.29 0.35 0.36 0.32 0.31 0.33 0.34 0.33
0.16 0.14 0.11 0.08 0.09 0.08 0.08 0.09 0.09 0.12 0.14 0.16 0.16 0.19 0.21 0.21 0.23 0.25 0.27 0.28 0.26 0.23 0.22 0.23 0.24 0.27 0.29 0.30 0.31 0.28 0.26 0.30 0.39 0.48 0.42 0.36 0.30 0.26
0.09 0.09 0.07 0.07 0.06 0.06 0.08 0.10 0.11 0.12 0.13 0.15 0.16 0.16 0.18 0.20 0.20 0.21 0.22 0.23 0.24 0.23 0.19 0.19 0.22 0.24 0.26 0.25 0.26 0.29 0.31 0.31 0.33 0.40 0.47 0.53 0.42 0.28

GEFSNE_prec_meanprecacc_090.txt.gz
Total_Precipitation_Accumulation
1.80 1.94 2.09 2.19 2.08 1.80 1.66 1.56 1.44 1.23 1.05 0.92 0.77 0.61 0.68 0.74 0.90 0.76 0.59 0.60 0.45 0.30 0.23 0.22 0.22 0.19 0.20 0.22 0.25 0.26 0.28 0.25 0.18 0.13 0.11 0.11 0.09 0.09
1.65 1.76 1.79 1.87 2.06 2.01 1.79 1.70 1.55 1.34 1.16 0.98 0.90 0.76 0.83 0.82 0.92 0.75 0.72 0.80 0.59 0.43 0.30 0.26 0.23 0.18 0.15 0.14 0.12 0.11 0.12 0.14 0.14 0.12 0.11 0.11 0.11 0.12
1.31 1.40 1.52 1.79 2.10 2.12 2.06 1.91 1.72 1.52 1.24 1.08 0.88 0.73 0.91 0.97 0.94 0.83 0.79 0.74 0.59 0.53 0.42 0.33 0.27 0.22 0.18 0.14 0.10 0.09 0.08 0.08 0.09 0.09 0.10 0.11 0.12 0.14
1.06 1.16 1.28 1.59 1.95 2.17 2.25 2.14 1.95 1.76 1.58 1.40 1.09 0.80 0.82 1.08 1.20 1.12 0.93 0.80 0.71 0.70 0.62 0.48 0.37 0.30 0.23 0.18 0.13 0.11 0.08 0.07 0.06 0.07 0.10 0.12 0.12 0.14
1.08 1.11 1.13 1.30 1.51 1.75 1.94 2.04 2.01 1.98 1.88 1.62 1.36 1.09 0.94 0.99 1.21 1.21 1.09 1.04 0.93 0.89 0.90 0.79 0.65 0.52 0.41 0.32 0.26 0.19 0.14 0.11 0.09 0.09 0.09 0.11 0.12 0.14
0.88 0.95 1.01 1.03 1.17 1.35 1.49 1.67 1.86 2.05 2.09 1.92 1.66 1.38 1.23 1.05 1.08 1.20 1.25 1.18 1.12 0.98 0.95 0.91 0.89 0.78 0.64 0.51 0.42 0.33 0.28 0.24 0.21 0.19 0.17 0.16 0.15 0.15
0.81 0.80 0.85 0.87 0.90 1.05 1.11 1.33 1.64 1.88 1.97 2.00 1.87 1.59 1.35 1.15 0.92 0.95 1.14 1.32 1.32 1.23 1.22 1.07 0.98 0.87 0.79 0.72 0.66 0.56 0.47 0.40 0.35 0.31 0.29 0.27 0.26 0.25
0.79 0.79 0.79 0.72 0.71 0.75 0.85 0.98 1.26 1.44 1.57 1.61 1.61 1.46 1.29 1.15 1.05 1.02 1.03 1.08 1.15 1.09 1.08 1.15 1.10 1.01 0.96 0.88 0.90 0.90 0.80 0.69 0.60 0.54 0.50 0.46 0.44 0.43
0.81 0.83 0.81 0.75 0.77 0.76 0.74 0.74 0.81 0.99 1.17 1.34 1.36 1.27 1.31 1.21 1.11 1.02 1.02 0.97 0.91 0.98 1.01 1.05 1.07 1.05 1.02 1.01 1.05 0.98 0.91 0.81 0.72 0.66 0.61 0.56 0.52 0.47
0.79 0.75 0.81 0.82 0.85 0.88 0.78 0.80 0.75 0.76 0.84 0.89 1.03 1.23 1.34 1.45 1.39 1.26 1.24 1.19 1.11 1.08 1.05 1.04 0.96 0.92 0.88 0.89 0.93 0.82 0.73 0.70 0.69 0.67 0.62 0.56 0.49 0.46
0.81 0.80 0.87 0.88 1.00 1.01 0.89 0.93 0.88 0.84 0.81 0.92 1.03 1.13 1.20 1.29 1.37 1.32 1.27 1.22 1.15 1.07 0.97 0.91 0.86 0.83 0.82 0.75 0.73 0.72 0.63 0.57 0.53 0.51 0.50 0.49 0.47 0.45
0.95 0.93 1.10 1.04 0.98 0.91 0.87 1.00 0.99 0.82 0.72 0.76 0.82 0.89 0.92 0.99 1.10 1.08 1.13 1.15 1.09 1.01 0.83 0.75 0.79 0.78 0.81 0.72 0.63 0.60 0.57 0.57 0.53 0.48 0.44 0.43 0.44 0.40
1.03 0.98 0.91 1.02 0.93 0.84 0.84 0.89 1.02 0.88 0.78 0.79 0.77 0.77 0.80 0.82 0.86 0.90 0.95 0.98 0.98 0.91 0.76 0.71 0.73 0.70 0.62 0.57 0.57 0.55 0.51 0.48 0.49 0.51 0.51 0.49 0.46 0.41
0.99 0.90 0.80 1.01 0.94 0.82 0.76 0.77 0.89 0.94 0.88 0.89 0.86 0.78 0.74 0.71 0.69 0.72 0.79 0.84 0.86 0.83 0.77 0.70 0.69 0.64 0.57 0.51 0.49 0.52 0.53 0.50 0.49 0.49 0.49 0.56 0.56 0.54
0.86 0.87 0.88 0.90 0.80 0.74 0.82 0.83 0.82 0.86 0.93 0.94 0.81 0.65 0.60 0.58 0.63 0.71 0.81 0.87 0.90 0.83 0.76 0.72 0.68 0.67 0.62 0.53 0.47 0.46 0.50 0.49 0.46 0.45 0.45 0.47 0.50 0.55
0.66 0.70 0.74 0.70 0.68 0.70 0.74 0.82 0.83 0.86 0.88 0.84 0.72 0.57 0.53 0.55 0.58 0.62 0.72 0.83 0.96 0.95 0.90 0.89 0.85 0.78 0.74 0.65 0.55 0.52 0.49 0.47 0.46 0.47 0.45 0.43 0.42 0.44
0.71 0.65 0.68 0.67 0.66 0.64 0.67 0.68 0.70 0.68 0.68 0.67 0.64 0.62 0.61 0.59 0.56 0.55 0.59 0.61 0.64 0.67 0.73 0.81 0.90 0.93 0.86 0.80 0.75 0.64 0.59 0.56 0.53 0.53 0.52 0.47 0.43 0.40
0.95 0.98 0.98 0.92 0.82 0.71 0.61 0.53 0.49 0.50 0.54 0.58 0.59 0.56 0.55 0.56 0.56 0.55 0.57 0.59 0.57 0.52 0.51 0.56 0.69 0.89 0.99 0.92 0.78 0.69 0.65 0.61 0.58 0.59 0.54 0.48 0.43 0.42
1.02 1.03 1.01 0.87 0.72 0.65 0.52 0.39 0.32 0.34 0.40 0.41 0.45 0.49 0.47 0.46 0.49 0.49 0.48 0.51 0.53 0.49 0.49 0.50 0.55 0.64 0.73 0.70 0.63 0.58 0.59 0.61 0.64 0.63 0.59 0.51 0.44 0.44
0.72 0.71 0.64 0.55 0.47 0.38 0.35 0.30 0.23 0.25 0.30 0.31 0.35 0.37 0.36 0.38 0.40 0.44 0.44 0.43 0.45 0.42 0.40 0.41 0.42 0.42 0.44 0.48 0.49 0.48 0.49 0.52 0.54 0.51 0.47 0.48 0.46 0.51
0.39 0.32 0.26 0.22 0.20 0.17 0.18 0.18 0.16 0.17 0.20 0.24 0.26 0.28 0.28 0.30 0.34 0.37 0.39 0.41 0.40 0.39 0.37 0.34 0.33 0.39 0.42 0.49 0.50 0.41 0.39 0.48 0.49 0.44 0.43 0.47 0.48 0.47
0.16 0.14 0.12 0.08 0.09 0.08 0.08 0.09 0.09 0.12 0.14 0.17 0.18 0.21 0.24 0.24 0.27 0.30 0.32 0.34 0.33 0.29 0.28 0.29 0.33 0.39 0.41 0.43 0.42 0.37 0.35 0.41 0.54 0.62 0.54 0.48 0.41 0.35
0.09 0.09 0.07 0.07 0.06 0.06 0.08 0.10 0.11 0.12 0.13 0.16 0.16 0.17 0.20 0.23 0.24 0.26 0.28 0.28 0.30 0.30 0.26 0.26 0.30 0.34 0.37 0.37 0.39 0.41 0.43 0.43 0.46 0.53 0.58 0.63 0.51 0.35

GEFSNE_prec_meanprecacc_096.txt.gz
Total_Precipitation_Accumulation
1.81 1.95 2.11 2.21 2.11 1.84 1.72 1.63 1.51 1.30 1.11 0.98 0.82 0.65 0.74 0.82 0.97 0.80 0.65 0.65 0.49 0.33 0.25 0.25 0.24 0.21 0.23 0.27 0.33 0.35 0.38 0.37 0.32 0.25 0.20 0.18 0.15 0.13
1.66 1.77 1.81 1.89 2.08 2.04 1.84 1.75 1.61 1.41 1.24 1.05 0.95 0.80 0.87 0.86 0.97 0.79 0.78 0.85 0.62 0.45 0.32 0.28 0.25 0.20 0.16 0.15 0.14 0.14 0.16 0.17 0.20 0.20 0.19 0.17 0.16 0.18
1.31 1.41 1.53 1.80 2.12 2.15 2.10 1.95 1.78 1.58 1.30 1.15 0.92 0.77 0.94 1.01 0.99 0.87 0.83 0.79 0.63 0.57 0.45 0.36 0.30 0.24 0.20 0.15 0.11 0.10 0.09 0.09 0.10 0.12 0.13 0.14 0.16 0.17
1.07 1.17 1.30 1.60 1.97 2.19 2.28 2.18 2.00 1.81 1.62 1.46 1.15 0.85 0.87 1.11 1.24 1.16 0.96 0.83 0.75 0.73 0.65 0.52 0.41 0.33 0.26 0.21 0.16 0.14 0.10 0.09 0.07 0.08 0.11 0.13 0.15 0.16
1.09 1.13 1.15 1.32 1.53 1.77 1.96 2.07 2.05 2.01 1.92 1.67 1.41 1.14 1.00 1.04 1.25 1.25 1.13 1.08 0.96 0.91 0.92 0.83 0.69 0.56 0.44 0.35 0.29 0.22 0.17 0.14 0.12 0.11 0.11 0.13 0.15 0.17
0.89 0.96 1.03 1.06 1.19 1.36 1.50 1.69 1.89 2.08 2.12 1.95 1.69 1.42 1.27 1.09 1.12 1.24 1.30 1.22 1.14 1.00 0.97 0.93 0.92 0.83 0.68 0.55 0.45 0.36 0.32 0.29 0.25 0.22 0.20 0.19 0.18 0.18
0.82 0.81 0.86 0.88 0.92 1.07 1.13 1.36 1.68 1.92 2.00 2.03 1.90 1.62 1.39 1.19 0.96 0.99 1.19 1.37 1.35 1.27 1.26 1.10 1.01 0.91 0.83 0.77 0.70 0.60 0.51 0.45 0.40 0.36 0.34 0.31 0.30 0.30
0.81 0.80 0.81 0.74 0.73 0.76 0.87 1.01 1.30 1.49 1.60 1.64 1.64 1.50 1.33 1.18 1.09 1.05 1.06 1.13 1.20 1.13 1.13 1.20 1.16 1.06 1.00 0.92 0.95 0.96 0.86 0.75 0.66 0.59 0.55 0.51 0.50 0.48
0.82 0.85 0.82 0.77 0.79 0.79 0.76 0.76 0.84 1.02 1.20 1.38 1.40 1.30 1.36 1.26 1.15 1.06 1.05 1.01 0.95 1.04 1.08 1.12 1.14 1.11 1.07 1.07 1.11 1.04 0.97 0.88 0.79 0.73 0.68 0.62 0.58 0.53
0.81 0.76 0.81 0.82 0.86 0.90 0.79 0.81 0.77 0.79 0.87 0.92 1.06 1.26 1.38 1.51 1.45 1.31 1.29 1.23 1.14 1.11 1.10 1.09 1.01 0.97 0.94 0.95 1.00 0.89 0.81 0.78 0.77 0.74 0.69 0.63 0.57 0.53
0.82 0.81 0.87 0.88 1.01 1.02 0.90 0.94 0.90 0.85 0.83 0.93 1.04 1.14 1.22 1.32 1.41 1.38 1.32 1.26 1.19 1.10 1.01 0.96 0.91 0.88 0.88 0.82 0.81 0.82 0.73 0.67 0.63 0.61 0.60 0.59 0.57 0.58
0.95 0.94 1.11 1.04 1.00 0.92 0.88 1.01 0.99 0.83 0.74 0.77 0.83 0.91 0.94 1.03 1.13 1.13 1.18 1.20 1.13 1.05 0.87 0.80 0.84 0.84 0.88 0.79 0.72 0.69 0.66 0.67 0.63 0.57 0.53 0.53 0.57 0.57
1.03 0.99 0.92 1.02 0.94 0.85 0.84 0.90 1.03 0.89 0.79 0.80 0.79 0.80 0.82 0.85 0.89 0.94 0.99 1.04 1.04 0.96 0.81 0.77 0.78 0.77 0.70 0.64 0.63 0.61 0.58 0.55 0.57 0.60 0.62 0.61 0.60 0.58
1.00 0.90 0.80 1.01 0.95 0.84 0.76 0.78 0.90 0.94 0.89 0.90 0.88 0.80 0.76 0.74 0.72 0.76 0.82 0.88 0.91 0.88 0.83 0.76 0.76 0.71 0.65 0.59 0.56 0.57 0.59 0.56 0.55 0.55 0.56 0.67 0.69 0.69
0.86 0.87 0.88 0.90 0.81 0.75 0.84 0.85 0.85 0.87 0.94 0.96 0.83 0.67 0.61 0.60 0.64 0.73 0.84 0.90 0.94 0.87 0.80 0.77 0.74 0.74 0.70 0.61 0.54 0.53 0.56 0.56 0.53 0.51 0.52 0.55 0.60 0.68
0.66 0.70 0.74 0.70 0.69 0.71 0.77 0.85 0.86 0.89 0.90 0.85 0.73 0.59 0.55 0.56 0.59 0.63 0.73 0.85 0.98 0.98 0.94 0.93 0.90 0.85 0.82 0.72 0.63 0.58 0.56 0.54 0.54 0.55 0.54 0.52 0.52 0.55
0.71 0.65 0.68 0.67 0.66 0.65 0.68 0.69 0.71 0.70 0.70 0.68 0.65 0.63 0.62 0.61 0.57 0.57 0.61 0.65 0.68 0.71 0.77 0.86 0.95 0.99 0.94 0.88 0.83 0.71 0.65 0.63 0.60 0.63 0.63 0.59 0.53 0.49
0.95 0.98 0.98 0.92 0.83 0.71 0.62 0.53 0.49 0.51 0.55 0.60 0.61 0.58 0.57 0.58 0.59 0.59 0.61 0.64 0.61 0.56 0.56 0.62 0.75 0.95 1.05 0.97 0.84 0.75 0.72 0.67 0.65 0.68 0.67 0.62 0.53 0.51
1.02 1.03 1.01 0.87 0.73 0.65 0.53 0.39 0.33 0.34 0.40 0.43 0.47 0.51 0.49 0.49 0.53 0.54 0.53 0.56 0.58 0.54 0.54 0.56 0.62 0.71 0.80 0.75 0.67 0.62 0.64 0.66 0.70 0.70 0.67 0.62 0.54 0.52
0.72 0.71 0.64 0.55 0.47 0.39 0.35 0.30 0.23 0.25 0.31 0.32 0.36 0.38 0.38 0.40 0.43 0.48 0.48 0.47 0.49 0.47 0.45 0.46 0.47 0.48 0.51 0.55 0.55 0.52 0.53 0.57 0.60 0.57 0.53 0.55 0.54 0.61
0.39 0.32 0.26 0.22 0.20 0.17 0.18 0.18 0.16 0.17 0.21 0.25 0.28 0.29 0.29 0.31 0.35 0.39 0.42 0.45 0.44 0.43 0.42 0.38 0.37 0.45 0.47 0.54 0.55 0.44 0.42 0.52 0.55 0.51 0.50 0.55 0.56 0.55
0.16 0.14 0.12 0.09 0.09 0.08 0.08 0.09 0.09 0.12 0.15 0.18 0.19 0.23 0.25 0.25 0.28 0.31 0.33 0.35 0.35 0.32 0.31 0.33 0.37 0.44 0.46 0.48 0.46 0.40 0.38 0.44 0.58 0.69 0.61 0.55 0.47 0.41
0.09 0.10 0.07 0.07 0.06 0.06 0.08 0.10 0.11 0.13 0.13 0.16 0.17 0.18 0.20 0.23 0.25 0.27 0.30 0.30 0.32 0.32 0.30 0.30 0.33 0.38 0.41 0.43 0.45 0.47 0.48 0.48 0.51 0.59 0.65 0.71 0.58 0.40

GEFSNE_prec_meanprecacc_102.txt.gz
Total_Precipitation_Accumulation
1.83 1.97 2.13 2.24 2.14 1.88 1.76 1.68 1.58 1.36 1.18 1.06 0.92 0.73 0.82 0.89 1.03 0.87 0.75 0.75 0.54 0.36 0.28 0.29 0.28 0.25 0.27 0.32 0.40 0.44 0.49 0.50 0.44 0.34 0.27 0.23 0.19 0.18
1.69 1.80 1.83 1.91 2.10 2.06 1.87 1.79 1.67 1.47 1.30 1.13 1.04 0.87 0.96 0.93 1.04 0.85 0.86 0.93 0.69 0.49 0.36 0.31 0.29 0.24 0.19 0.16 0.15 0.16 0.19 0.22 0.27 0.27 0.25 0.22 0.20 0.21
1.33 1.44 1.56 1.83 2.14 2.18 2.13 1.98 1.82 1.62 1.35 1.20 0.99 0.83 1.03 1.09 1.07 0.95 0.92 0.87 0.71 0.61 0.48 0.39 0.33 0.28 0.24 0.18 0.13 0.12 0.11 0.12 0.13 0.16 0.17 0.17 0.18 0.19
1.09 1.20 1.32 1.63 2.00 2.23 2.32 2.21 2.03 1.85 1.66 1.50 1.19 0.90 0.94 1.19 1.31 1.24 1.04 0.91 0.82 0.78 0.69 0.55 0.44 0.36 0.30 0.25 0.20 0.16 0.13 0.11 0.09 0.10 0.13 0.16 0.18 0.19
1.11 1.15 1.17 1.34 1.56 1.80 1.99 2.10 2.08 2.05 1.96 1.70 1.44 1.18 1.05 1.10 1.31 1.32 1.21 1.16 1.03 0.98 0.98 0.87 0.71 0.58 0.46 0.38 0.33 0.26 0.20 0.17 0.15 0.13 0.13 0.15 0.17 0.20
0.92 0.99 1.06 1.09 1.22 1.39 1.53 1.72 1.92 2.12 2.17 1.99 1.73 1.46 1.30 1.14 1.19 1.31 1.38 1.30 1.21 1.06 1.03 0.97 0.95 0.86 0.71 0.57 0.47 0.39 0.34 0.31 0.28 0.25 0.23 0.22 0.21 0.21
0.85 0.84 0.89 0.90 0.93 1.09 1.15 1.39 1.71 1.96 2.05 2.08 1.95 1.67 1.43 1.24 1.01 1.05 1.26 1.44 1.43 1.34 1.32 1.15 1.06 0.95 0.87 0.80 0.73 0.62 0.54 0.47 0.42 0.39 0.38 0.35 0.33 0.33
0.83 0.83 0.84 0.77 0.74 0.77 0.88 1.02 1.32 1.53 1.65 1.70 1.70 1.55 1.38 1.24 1.16 1.11 1.12 1.20 1.27 1.20 1.19 1.27 1.23 1.12 1.04 0.96 0.98 0.99 0.90 0.79 0.69 0.62 0.58 0.55 0.53 0.51
0.85 0.87 0.84 0.79 0.82 0.81 0.77 0.77 0.86 1.05 1.25 1.44 1.45 1.36 1.42 1.32 1.23 1.13 1.11 1.07 1.04 1.12 1.15 1.20 1.23 1.17 1.12 1.11 1.14 1.07 1.00 0.92 0.84 0.77 0.72 0.66 0.62 0.57
0.83 0.78 0.84 0.84 0.87 0.92 0.82 0.83 0.79 0.81 0.90 0.95 1.09 1.29 1.43 1.56 1.50 1.38 1.37 1.29 1.20 1.22 1.20 1.15 1.08 1.05 1.01 1.01 1.05 0.93 0.85 0.81 0.81 0.79 0.74 0.68 0.61 0.58
0.83 0.82 0.89 0.89 1.02 1.04 0.94 0.97 0.91 0.86 0.84 0.95 1.05 1.16 1.24 1.35 1.45 1.42 1.39 1.33 1.24 1.16 1.10 1.04 0.98 0.96 0.96 0.89 0.86 0.86 0.77 0.71 0.67 0.66 0.66 0.64 0.62 0.63
0.96 0.95 1.12 1.05 1.00 0.93 0.89 1.03 1.01 0.85 0.75 0.79 0.85 0.92 0.96 1.06 1.17 1.17 1.24 1.27 1.19 1.10 0.94 0.87 0.89 0.91 0.92 0.84 0.77 0.74 0.70 0.71 0.67 0.62 0.59 0.60 0.65 0.64
1.05 1.01 0.93 1.03 0.94 0.86 0.85 0.90 1.03 0.89 0.80 0.81 0.81 0.83 0.86 0.89 0.94 1.00 1.06 1.12 1.12 1.02 0.89 0.86 0.86 0.83 0.74 0.67 0.66 0.65 0.62 0.60 0.62 0.64 0.66 0.65 0.66 0.65
1.01 0.92 0.81 1.02 0.95 0.84 0.76 0.78 0.90 0.95 0.90 0.92 0.90 0.83 0.79 0.77 0.75 0.81 0.89 0.95 0.99 0.96 0.92 0.87 0.84 0.78 0.71 0.63 0.58 0.59 0.61 0.60 0.59 0.59 0.60 0.72 0.74 0.75
0.86 0.87 0.88 0.90 0.81 0.76 0.84 0.85 0.86 0.88 0.94 0.97 0.86 0.70 0.64 0.64 0.68 0.77 0.88 0.95 0.99 0.93 0.86 0.83 0.82 0.84 0.81 0.68 0.59 0.56 0.60 0.59 0.57 0.56 0.55 0.59 0.64 0.73
0.66 0.70 0.74 0.70 0.69 0.71 0.77 0.86 0.88 0.91 0.91 0.86 0.75 0.61 0.57 0.59 0.61 0.65 0.76 0.89 1.02 1.02 0.99 0.98 0.95 0.91 0.88 0.78 0.69 0.63 0.61 0.59 0.57 0.59 0.58 0.56 0.56 0.59
0.71 0.66 0.68 0.68 0.67 0.66 0.69 0.71 0.72 0.71 0.72 0.70 0.66 0.64 0.63 0.61 0.58 0.58 0.63 0.67 0.70 0.73 0.80 0.89 0.99 1.04 0.98 0.93 0.87 0.74 0.70 0.68 0.66 0.69 0.70 0.66 0.57 0.53
0.95 0.98 0.99 0.93 0.83 0.72 0.62 0.54 0.50 0.52 0.56 0.60 0.62 0.60 0.58 0.59 0.60 0.60 0.63 0.66 0.63 0.59 0.59 0.66 0.80 0.99 1.08 1.01 0.87 0.78 0.76 0.72 0.71 0.76 0.75 0.69 0.58 0.55
1.02 1.04 1.02 0.87 0.73 0.65 0.53 0.40 0.33 0.35 0.41 0.43 0.48 0.51 0.50 0.50 0.53 0.55 0.54 0.58 0.60 0.56 0.57 0.60 0.66 0.75 0.83 0.77 0.70 0.65 0.67 0.71 0.76 0.78 0.75 0.69 0.59 0.55
0.72 0.72 0.64 0.55 0.47 0.39 0.35 0.30 0.23 0.25 0.31 0.33 0.36 0.38 0.38 0.41 0.43 0.48 0.49 0.48 0.50 0.48 0.47 0.50 0.53 0.54 0.56 0.59 0.58 0.54 0.55 0.60 0.64 0.62 0.59 0.61 0.60 0.66
0.39 0.33 0.27 0.22 0.21 0.18 0.18 0.18 0.16 0.17 0.21 0.26 0.28 0.29 0.30 0.31 0.35 0.39 0.42 0.45 0.44 0.43 0.43 0.39 0.40 0.48 0.51 0.57 0.58 0.45 0.44 0.55 0.58 0.55 0.55 0.60 0.61 0.60
0.16 0.15 0.12 0.09 0.09 0.08 0.08 0.10 0.10 0.12 0.15 0.18 0.20 0.23 0.25 0.25 0.28 0.31 0.33 0.36 0.35 0.33 0.32 0.34 0.39 0.46 0.48 0.50 0.48 0.42 0.40 0.46 0.60 0.70 0.63 0.58 0.51 0.45
0.09 0.10 0.07 0.07 0.06 0.06 0.08 0.10 0.12 0.13 0.13 0.16 0.17 0.18 0.21 0.23 0.25 0.27 0.30 0.31 0.33 0.33 0.30 0.30 0.34 0.40 0.42 0.44 0.47 0.49 0.50 0.50 0.53 0.61 0.66 0.73 0.60 0.43

GEFSNE_prec_meanprecacc_108.txt.gz
Total_Precipitation_Accumulation
1.84 1.98 2.14 2.24 2.15 1.89 1.77 1.70 1.59 1.38 1.20 1.10 0.96 0.78 0.87 0.95 1.11 0.94 0.82 0.83 0.63 0.45 0.36 0.36 0.34 0.32 0.35 0.41 0.50 0.57 0.65 0.70 0.66 0.52 0.41 0.34 0.28 0.25
1.69 1.80 1.83 1.91 2.10 2.07 1.87 1.80 1.68 1.48 1.31 1.15 1.07 0.92 1.02 0.99 1.09 0.91 0.92 0.99 0.75 0.56 0.43 0.38 0.34 0.29 0.24 0.22 0.21 0.22 0.25 0.30 0.39 0.43 0.40 0.36 0.32 0.31
1.34 1.44 1.57 1.84 2.15 2.18 2.13 1.99 1.83 1.63 1.36 1.21 1.01 0.88 1.09 1.16 1.15 1.02 1.00 0.94 0.77 0.69 0.56 0.46 0.39 0.34 0.29 0.24 0.20 0.18 0.16 0.17 0.20 0.24 0.28 0.29 0.30 0.31
1.10 1.21 1.34 1.64 2.01 2.23 2.32 2.21 2.04 1.86 1.67 1.51 1.20 0.92 0.99 1.25 1.38 1.31 1.10 0.96 0.88 0.84 0.75 0.61 0.50 0.41 0.35 0.32 0.27 0.22 0.18 0.17 0.15 0.17 0.20 0.25 0.30 0.32
1.12 1.16 1.19 1.35 1.56 1.80 2.00 2.11 2.10 2.07 1.98 1.71 1.45 1.19 1.06 1.15 1.37 1.38 1.27 1.22 1.08 1.03 1.03 0.90 0.75 0.62 0.50 0.44 0.40 0.33 0.26 0.23 0.21 0.19 0.18 0.21 0.25 0.31
0.94 1.02 1.09 1.11 1.23 1.40 1.54 1.73 1.93 2.14 2.19 2.01 1.75 1.47 1.32 1.17 1.23 1.37 1.44 1.37 1.27 1.13 1.09 1.01 0.99 0.89 0.73 0.60 0.51 0.44 0.40 0.37 0.33 0.32 0.30 0.28 0.26 0.27
0.86 0.86 0.91 0.93 0.94 1.10 1.17 1.40 1.72 1.97 2.07 2.10 1.98 1.69 1.44 1.26 1.03 1.08 1.32 1.51 1.50 1.41 1.40 1.20 1.10 0.98 0.89 0.82 0.75 0.65 0.57 0.52 0.47 0.44 0.43 0.41 0.40 0.40
0.85 0.84 0.85 0.80 0.76 0.78 0.89 1.03 1.33 1.54 1.67 1.72 1.72 1.58 1.40 1.25 1.18 1.14 1.16 1.26 1.32 1.27 1.28 1.34 1.29 1.16 1.07 0.98 1.00 1.02 0.93 0.82 0.73 0.67 0.64 0.60 0.59 0.58
0.86 0.88 0.84 0.80 0.83 0.82 0.78 0.78 0.87 1.06 1.27 1.46 1.46 1.37 1.44 1.34 1.24 1.15 1.14 1.10 1.06 1.17 1.23 1.28 1.29 1.22 1.17 1.15 1.18 1.10 1.03 0.95 0.87 0.81 0.77 0.72 0.67 0.62
0.83 0.78 0.84 0.85 0.88 0.93 0.83 0.84 0.80 0.81 0.91 0.97 1.11 1.31 1.44 1.58 1.52 1.40 1.39 1.32 1.23 1.25 1.25 1.21 1.13 1.11 1.06 1.05 1.08 0.96 0.87 0.83 0.83 0.82 0.77 0.71 0.65 0.61
0.83 0.82 0.89 0.90 1.03 1.05 0.95 0.98 0.92 0.87 0.86 0.97 1.07 1.17 1.25 1.37 1.47 1.44 1.40 1.36 1.26 1.19 1.14 1.10 1.01 0.99 1.00 0.94 0.91 0.90 0.81 0.75 0.70 0.69 0.68 0.66 0.65 0.67
0.96 0.95 1.13 1.06 1.01 0.94 0.90 1.04 1.01 0.85 0.75 0.81 0.87 0.94 0.98 1.07 1.18 1.18 1.26 1.30 1.23 1.13 0.96 0.90 0.94 0.95 0.95 0.86 0.80 0.78 0.74 0.75 0.72 0.66 0.62 0.63 0.69 0.69
1.05 1.01 0.94 1.04 0.96 0.87 0.85 0.90 1.03 0.89 0.80 0.82 0.82 0.84 0.86 0.89 0.94 1.00 1.08 1.14 1.17 1.07 0.92 0.90 0.90 0.90 0.80 0.70 0.67 0.68 0.66 0.65 0.67 0.68 0.70 0.70 0.71 0.71
1.01 0.92 0.81 1.02 0.96 0.85 0.77 0.78 0.90 0.95 0.90 0.93 0.91 0.84 0.79 0.77 0.75 0.82 0.91 0.98 1.03 1.02 0.99 0.93 0.90 0.85 0.81 0.71 0.63 0.62 0.65 0.65 0.64 0.63 0.64 0.76 0.79 0.80
0.86 0.87 0.88 0.90 0.81 0.76 0.84 0.85 0.86 0.88 0.95 0.98 0.86 0.70 0.64 0.64 0.68 0.78 0.89 0.98 1.03 0.99 0.93 0.91 0.90 0.91 0.89 0.79 0.68 0.63 0.64 0.63 0.61 0.60 0.60 0.62 0.67 0.77
0.66 0.70 0.74 0.70 0.69 0.72 0.78 0.86 0.88 0.91 0.91 0.86 0.75 0.61 0.57 0.59 0.61 0.65 0.76 0.90 1.03 1.04 1.02 1.03 1.01 0.99 0.97 0.87 0.77 0.70 0.66 0.63 0.61 0.64 0.64 0.61 0.60 0.62
0.71 0.66 0.68 0.68 0.67 0.66 0.69 0.71 0.73 0.71 0.72 0.70 0.66 0.65 0.63 0.62 0.58 0.58 0.63 0.67 0.71 0.73 0.81 0.90 1.01 1.09 1.04 0.98 0.92 0.79 0.75 0.72 0.69 0.72 0.74 0.69 0.61 0.56
0.95 0.98 0.99 0.93 0.83 0.72 0.62 0.54 0.50 0.52 0.56 0.60 0.62 0.60 0.58 0.59 0.60 0.60 0.63 0.66 0.63 0.59 0.60 0.67 0.81 1.01 1.12 1.04 0.90 0.80 0.78 0.74 0.73 0.78 0.78 0.73 0.61 0.58
1.02 1.04 1.02 0.87 0.73 0.65 0.53 0.40 0.33 0.35 0.41 0.44 0.48 0.51 0.50 0.50 0.54 0.55 0.54 0.58 0.60 0.56 0.57 0.60 0.67 0.76 0.85 0.80 0.72 0.67 0.69 0.73 0.78 0.80 0.77 0.71 0.60 0.57
0.72 0.72 0.64 0.55 0.47 0.39 0.35 0.30 0.23 0.25 0.31 0.33 0.37 0.39 0.38 0.41 0.43 0.48 0.49 0.48 0.50 0.49 0.48 0.50 0.53 0.54 0.56 0.59 0.59 0.55 0.57 0.63 0.67 0.64 0.61 0.63 0.62 0.67
0.39 0.33 0.27 0.22 0.21 0.18 0.18 0.18 0.16 0.17 0.21 0.26 0.28 0.29 0.30 0.31 0.35 0.39 0.42 0.45 0.44 0.43 0.43 0.39 0.40 0.48 0.51 0.58 0.58 0.46 0.45 0.56 0.59 0.56 0.56 0.61 0.63 0.61
0.16 0.15 0.12 0.09 0.09 0.08 0.08 0.10 0.10 0.12 0.15 0.18 0.20 0.23 0.25 0.25 0.28 0.31 0.33 0.36 0.35 0.33 0.32 0.34 0.39 0.46 0.49 0.51 0.49 0.42 0.40 0.46 0.60 0.71 0.64 0.59 0.52 0.46
0.09 0.10 0.07 0.07 0.06 0.06 0.08 0.10 0.12 0.13 0.13 0.16 0.17 0.18 0.21 0.23 0.25 0.27 0.30 0.31 0.33 0.33 0.30 0.31 0.34 0.40 0.43 0.44 0.47 0.49 0.50 0.50 0.53 0.61 0.67 0.73 0.61 0.43